Time,TemperatureF,DewpointF,PressureIn,WindDirection,WindDirectionDegrees,WindSpeedMPH,WindSpeedGustMPH,Humidity,HourlyPrecipIn,Conditions,Clouds,dailyrainin,SoftwareType,DateUTC
2013-02-13 00:59:00,40.1,30.0,29.94,North,360,2.0,2.0,67,0.00,,,0.00,Wunderground v.1.15,2013-02-13 05:59:00,
2013-02-13 01:12:00,39.8,29.7,29.93,NE,53,2.0,4.0,67,0.00,,,0.00,Wunderground v.1.15,2013-02-13 06:12:00,
2013-02-13 01:18:00,39.8,29.7,29.93,NE,47,2.0,2.0,67,0.00,,,0.00,Wunderground v.1.15,2013-02-13 06:18:00,
2013-02-13 01:20:00,39.8,29.7,29.93,NNE,28,2.0,2.0,67,0.00,,,0.00,Wunderground v.1.15,2013-02-13 06:20:00,
2013-02-13 01:24:00,39.8,29.7,29.92,NE,50,2.0,2.0,67,0.00,,,0.00,Wunderground v.1.15,2013-02-13 06:24:00,
2013-02-13 01:26:00,39.8,29.7,29.92,NE,50,2.0,3.0,67,0.00,,,0.00,Wunderground v.1.15,2013-02-13 06:26:00,
2013-02-13 01:29:00,39.9,29.8,29.92,NE,50,1.0,2.0,67,0.00,,,0.00,Wunderground v.1.15,2013-02-13 06:29:00,
2013-02-13 01:30:00,39.9,29.8,29.92,NE,50,1.0,2.0,67,0.00,,,0.00,Wunderground v.1.15,2013-02-13 06:30:00,
2013-02-13 01:34:00,39.9,29.8,29.92,NE,50,1.0,2.0,67,0.00,,,0.00,Wunderground v.1.15,2013-02-13 06:34:00,
2013-02-13 01:36:00,39.9,29.8,29.92,NE,50,1.0,2.0,67,0.00,,,0.00,Wunderground v.1.15,2013-02-13 06:36:00,
2013-02-13 01:41:00,40.0,29.9,29.93,NNE,24,1.0,2.0,67,0.00,,,0.00,Wunderground v.1.15,2013-02-13 06:41:00,
2013-02-13 01:45:00,40.0,29.9,29.92,NNE,24,1.0,2.0,67,0.00,,,0.00,Wunderground v.1.15,2013-02-13 06:45:00,
2013-02-13 01:47:00,40.0,29.9,29.92,NE,46,1.0,1.0,67,0.00,,,0.00,Wunderground v.1.15,2013-02-13 06:47:00,
2013-02-13 01:48:00,40.0,29.9,29.92,NNE,28,1.0,3.0,67,0.00,,,0.00,Wunderground v.1.15,2013-02-13 06:48:00,
2013-02-13 01:50:00,40.0,29.6,29.92,North,5,2.0,3.0,66,0.00,,,0.00,Wunderground v.1.15,2013-02-13 06:50:00,
2013-02-13 01:55:00,40.0,29.9,29.93,NNE,24,2.0,3.0,67,0.00,,,0.00,Wunderground v.1.15,2013-02-13 06:55:00,
2013-02-13 01:56:00,40.0,29.9,29.93,NNE,31,2.0,3.0,67,0.00,,,0.00,Wunderground v.1.15,2013-02-13 06:56:00,
2013-02-13 02:02:00,40.1,29.6,29.93,NE,53,2.0,3.0,66,0.00,,,0.00,Wunderground v.1.15,2013-02-13 07:02:00,
2013-02-13 02:05:00,40.2,29.7,29.93,NE,40,2.0,4.0,66,0.00,,,0.00,Wunderground v.1.15,2013-02-13 07:05:00,
2013-02-13 02:10:00,40.2,30.1,29.92,NE,40,2.0,4.0,67,0.00,,,0.00,Wunderground v.1.15,2013-02-13 07:10:00,
2013-02-13 02:13:00,40.1,29.6,29.92,NE,37,2.0,4.0,66,0.00,,,0.00,Wunderground v.1.15,2013-02-13 07:13:00,
2013-02-13 02:15:00,40.1,29.6,29.92,NE,37,2.0,4.0,66,0.00,,,0.00,Wunderground v.1.15,2013-02-13 07:15:00,
2013-02-13 02:18:00,40.0,29.9,29.92,NE,47,3.0,3.0,67,0.00,,,0.00,Wunderground v.1.15,2013-02-13 07:18:00,
2013-02-13 02:20:00,40.1,30.0,29.92,NNE,28,3.0,3.0,67,0.00,,,0.00,Wunderground v.1.15,2013-02-13 07:20:00,
2013-02-13 02:26:00,40.1,30.0,29.91,NE,51,2.0,4.0,67,0.00,,,0.00,Wunderground v.1.15,2013-02-13 07:26:00,
2013-02-13 02:27:00,40.1,30.0,29.91,NE,49,2.0,2.0,67,0.00,,,0.00,Wunderground v.1.15,2013-02-13 07:27:00,
2013-02-13 02:29:00,40.1,29.6,29.91,NNE,19,2.0,3.0,66,0.00,,,0.00,Wunderground v.1.15,2013-02-13 07:29:00,
2013-02-13 02:31:00,40.1,29.6,29.91,NE,49,2.0,3.0,66,0.00,,,0.00,Wunderground v.1.15,2013-02-13 07:31:00,
2013-02-13 02:33:00,40.2,30.1,29.91,NNE,22,3.0,3.0,67,0.00,,,0.00,Wunderground v.1.15,2013-02-13 07:33:00,
2013-02-13 02:34:00,40.1,30.0,29.91,NNE,16,3.0,3.0,67,0.00,,,0.00,Wunderground v.1.15,2013-02-13 07:34:00,
2013-02-13 02:36:00,40.1,30.0,29.91,NNE,33,3.0,3.0,67,0.00,,,0.00,Wunderground v.1.15,2013-02-13 07:36:00,
2013-02-13 02:39:00,40.1,29.6,29.91,NNE,21,3.0,5.0,66,0.00,,,0.00,Wunderground v.1.15,2013-02-13 07:39:00,
2013-02-13 02:43:00,40.1,29.6,29.91,NNE,17,3.0,5.0,66,0.00,,,0.00,Wunderground v.1.15,2013-02-13 07:43:00,
2013-02-13 02:45:00,40.0,29.9,29.90,NE,36,3.0,5.0,67,0.00,,,0.00,Wunderground v.1.15,2013-02-13 07:45:00,
2013-02-13 02:48:00,40.0,29.9,29.90,NE,42,3.0,4.0,67,0.00,,,0.00,Wunderground v.1.15,2013-02-13 07:48:00,
2013-02-13 02:49:00,40.0,29.9,29.90,NE,42,3.0,4.0,67,0.00,,,0.00,Wunderground v.1.15,2013-02-13 07:49:00,
2013-02-13 02:52:00,40.0,29.9,29.89,NE,47,2.0,4.0,67,0.00,,,0.00,Wunderground v.1.15,2013-02-13 07:52:00,
2013-02-13 02:55:00,40.0,29.9,29.89,NE,39,2.0,4.0,67,0.00,,,0.00,Wunderground v.1.15,2013-02-13 07:55:00,
2013-02-13 02:57:00,39.9,29.8,29.89,North,5,2.0,3.0,67,0.00,,,0.00,Wunderground v.1.15,2013-02-13 07:57:00,
2013-02-13 03:00:00,39.9,30.2,29.89,NE,53,2.0,3.0,68,0.00,,,0.00,Wunderground v.1.15,2013-02-13 08:00:00,
2013-02-13 03:06:00,39.8,30.1,29.89,NE,51,2.0,3.0,68,0.00,,,0.00,Wunderground v.1.15,2013-02-13 08:06:00,
2013-02-13 03:07:00,39.8,29.7,29.89,ENE,57,2.0,3.0,67,0.00,,,0.00,Wunderground v.1.15,2013-02-13 08:07:00,
2013-02-13 03:13:00,39.8,30.1,29.89,ENE,60,1.0,2.0,68,0.00,,,0.00,Wunderground v.1.15,2013-02-13 08:13:00,
2013-02-13 03:17:00,39.9,29.8,29.89,NE,38,1.0,1.0,67,0.00,,,0.00,Wunderground v.1.15,2013-02-13 08:17:00,
2013-02-13 03:20:00,39.9,30.2,29.89,NE,42,1.0,4.0,68,0.00,,,0.00,Wunderground v.1.15,2013-02-13 08:20:00,
2013-02-13 03:24:00,39.9,29.8,29.88,NE,37,2.0,4.0,67,0.00,,,0.00,Wunderground v.1.15,2013-02-13 08:24:00,
2013-02-13 03:27:00,39.9,30.2,29.88,ESE,106,2.0,2.0,68,0.00,,,0.00,Wunderground v.1.15,2013-02-13 08:27:00,
2013-02-13 03:29:00,39.9,30.2,29.88,ENE,63,2.0,3.0,68,0.00,,,0.00,Wunderground v.1.15,2013-02-13 08:29:00,
2013-02-13 03:32:00,39.8,30.1,29.87,ENE,63,2.0,4.0,68,0.00,,,0.00,Wunderground v.1.15,2013-02-13 08:32:00,
2013-02-13 03:35:00,39.8,30.5,29.87,ENE,63,2.0,4.0,69,0.00,,,0.00,Wunderground v.1.15,2013-02-13 08:35:00,
2013-02-13 03:37:00,39.8,30.1,29.87,ENE,70,2.0,4.0,68,0.00,,,0.00,Wunderground v.1.15,2013-02-13 08:37:00,
2013-02-13 03:41:00,39.8,30.5,29.87,NNE,26,3.0,5.0,69,0.00,,,0.00,Wunderground v.1.15,2013-02-13 08:41:00,
2013-02-13 03:42:00,39.8,30.5,29.87,ENE,77,2.0,5.0,69,0.00,,,0.00,Wunderground v.1.15,2013-02-13 08:42:00,
2013-02-13 03:43:00,39.8,30.1,29.87,NE,44,2.0,5.0,68,0.00,,,0.00,Wunderground v.1.15,2013-02-13 08:43:00,
2013-02-13 03:47:00,39.8,30.1,29.87,NE,39,2.0,5.0,68,0.00,,,0.00,Wunderground v.1.15,2013-02-13 08:47:00,
2013-02-13 03:49:00,39.8,30.1,29.87,NE,39,2.0,2.0,68,0.00,,,0.00,Wunderground v.1.15,2013-02-13 08:49:00,
2013-02-13 03:51:00,39.7,30.0,29.87,NE,51,2.0,3.0,68,0.00,,,0.00,Wunderground v.1.15,2013-02-13 08:51:00,
2013-02-13 03:52:00,39.8,30.1,29.87,North,360,2.0,3.0,68,0.00,,,0.00,Wunderground v.1.15,2013-02-13 08:52:00,
2013-02-13 03:53:00,39.7,30.4,29.87,NE,35,2.0,3.0,69,0.00,,,0.00,Wunderground v.1.15,2013-02-13 08:53:00,
2013-02-13 03:56:00,39.7,30.0,29.87,NE,51,2.0,3.0,68,0.00,,,0.00,Wunderground v.1.15,2013-02-13 08:56:00,
2013-02-13 03:59:00,39.7,30.4,29.87,ENE,60,2.0,2.0,69,0.00,,,0.00,Wunderground v.1.15,2013-02-13 08:59:00,
2013-02-13 04:00:00,39.7,30.4,29.87,North,5,1.0,3.0,69,0.00,,,0.00,Wunderground v.1.15,2013-02-13 09:00:00,
2013-02-13 04:03:00,39.7,30.4,29.87,NNE,20,1.0,3.0,69,0.00,,,0.00,Wunderground v.1.15,2013-02-13 09:03:00,
2013-02-13 04:04:00,39.7,30.4,29.87,NE,40,2.0,3.0,69,0.00,,,0.00,Wunderground v.1.15,2013-02-13 09:04:00,
2013-02-13 04:08:00,39.7,30.4,29.86,East,80,2.0,2.0,69,0.00,,,0.00,Wunderground v.1.15,2013-02-13 09:08:00,
2013-02-13 04:10:00,39.6,30.3,29.86,ENE,78,2.0,2.0,69,0.00,,,0.00,Wunderground v.1.15,2013-02-13 09:10:00,
2013-02-13 04:13:00,39.6,30.3,29.86,North,5,2.0,4.0,69,0.00,,,0.00,Wunderground v.1.15,2013-02-13 09:13:00,
2013-02-13 04:14:00,39.6,30.3,29.86,NNE,30,2.0,4.0,69,0.00,,,0.00,Wunderground v.1.15,2013-02-13 09:14:00,
2013-02-13 04:16:00,39.5,30.2,29.85,ENE,69,2.0,4.0,69,0.00,,,0.00,Wunderground v.1.15,2013-02-13 09:16:00,
2013-02-13 04:18:00,39.6,30.3,29.85,ENE,58,2.0,3.0,69,0.00,,,0.00,Wunderground v.1.15,2013-02-13 09:18:00,
2013-02-13 04:20:00,39.5,30.2,29.85,ENE,57,2.0,3.0,69,0.00,,,0.00,Wunderground v.1.15,2013-02-13 09:20:00,
2013-02-13 04:21:00,39.6,30.6,29.85,ENE,57,2.0,3.0,70,0.00,,,0.00,Wunderground v.1.15,2013-02-13 09:21:00,
2013-02-13 04:22:00,39.5,30.5,29.85,ENE,57,2.0,3.0,70,0.00,,,0.00,Wunderground v.1.15,2013-02-13 09:22:00,
2013-02-13 04:25:00,39.5,30.5,29.86,ENE,57,1.0,3.0,70,0.00,,,0.00,Wunderground v.1.15,2013-02-13 09:25:00,
2013-02-13 04:26:00,39.5,30.5,29.86,North,5,1.0,3.0,70,0.00,,,0.00,Wunderground v.1.15,2013-02-13 09:26:00,
2013-02-13 04:28:00,39.5,30.5,29.86,North,5,1.0,1.0,70,0.00,,,0.00,Wunderground v.1.15,2013-02-13 09:28:00,
2013-02-13 04:31:00,39.4,30.1,29.86,North,355,1.0,3.0,69,0.00,,,0.00,Wunderground v.1.15,2013-02-13 09:31:00,
2013-02-13 04:32:00,39.4,30.4,29.86,North,355,1.0,3.0,70,0.00,,,0.00,Wunderground v.1.15,2013-02-13 09:32:00,
2013-02-13 04:33:00,39.4,30.4,29.86,North,355,1.0,3.0,70,0.00,,,0.00,Wunderground v.1.15,2013-02-13 09:33:00,
2013-02-13 04:36:00,39.4,30.4,29.86,NNE,19,1.0,3.0,70,0.00,,,0.00,Wunderground v.1.15,2013-02-13 09:36:00,
2013-02-13 04:38:00,39.4,30.1,29.86,NNE,18,1.0,1.0,69,0.00,,,0.00,Wunderground v.1.15,2013-02-13 09:38:00,
2013-02-13 04:39:00,39.5,30.2,29.86,NNE,18,1.0,2.0,69,0.00,,,0.00,Wunderground v.1.15,2013-02-13 09:39:00,
2013-02-13 04:41:00,39.4,30.1,29.86,North,355,1.0,4.0,69,0.00,,,0.00,Wunderground v.1.15,2013-02-13 09:41:00,
2013-02-13 04:44:00,39.5,30.2,29.86,NNE,24,1.0,4.0,69,0.00,,,0.00,Wunderground v.1.15,2013-02-13 09:44:00,
2013-02-13 04:46:00,39.5,30.2,29.86,NNE,16,1.0,4.0,69,0.00,,,0.00,Wunderground v.1.15,2013-02-13 09:46:00,
2013-02-13 04:47:00,39.5,30.2,29.86,NE,35,1.0,4.0,69,0.00,,,0.00,Wunderground v.1.15,2013-02-13 09:47:00,
2013-02-13 04:48:00,39.5,30.2,29.86,East,81,2.0,6.0,69,0.00,,,0.00,Wunderground v.1.15,2013-02-13 09:48:00,
2013-02-13 04:49:00,39.5,30.5,29.85,NE,48,2.0,6.0,70,0.00,,,0.00,Wunderground v.1.15,2013-02-13 09:49:00,
2013-02-13 04:54:00,39.4,30.1,29.85,NNE,28,2.0,6.0,69,0.00,,,0.00,Wunderground v.1.15,2013-02-13 09:54:00,
2013-02-13 04:57:00,39.4,30.1,29.85,NE,34,3.0,3.0,69,0.00,,,0.00,Wunderground v.1.15,2013-02-13 09:57:00,
2013-02-13 04:59:00,39.3,30.0,29.85,NNE,24,3.0,3.0,69,0.00,,,0.00,Wunderground v.1.15,2013-02-13 09:59:00,
2013-02-13 05:01:00,39.3,30.3,29.84,NE,42,3.0,4.0,70,0.00,,,0.00,Wunderground v.1.15,2013-02-13 10:01:00,
2013-02-13 05:06:00,39.2,29.9,29.85,NNE,30,3.0,4.0,69,0.00,,,0.00,Wunderground v.1.15,2013-02-13 10:06:00,
2013-02-13 05:08:00,39.2,29.9,29.85,NNE,30,2.0,2.0,69,0.00,,,0.00,Wunderground v.1.15,2013-02-13 10:08:00,
2013-02-13 05:10:00,39.3,30.0,29.85,ENE,69,3.0,3.0,69,0.00,,,0.00,Wunderground v.1.15,2013-02-13 10:10:00,
2013-02-13 05:13:00,39.2,30.2,29.85,NE,46,2.0,3.0,70,0.00,,,0.00,Wunderground v.1.15,2013-02-13 10:13:00,
2013-02-13 05:16:00,39.2,29.9,29.84,ENE,57,2.0,4.0,69,0.00,,,0.00,Wunderground v.1.15,2013-02-13 10:16:00,
2013-02-13 05:17:00,39.2,29.9,29.84,ENE,57,2.0,4.0,69,0.00,,,0.00,Wunderground v.1.15,2013-02-13 10:17:00,
2013-02-13 05:18:00,39.2,30.2,29.85,ENE,57,2.0,2.0,70,0.00,,,0.00,Wunderground v.1.15,2013-02-13 10:18:00,
2013-02-13 05:23:00,39.2,29.9,29.85,NE,51,2.0,3.0,69,0.00,,,0.00,Wunderground v.1.15,2013-02-13 10:23:00,
2013-02-13 05:25:00,39.1,29.8,29.85,NE,51,2.0,3.0,69,0.00,,,0.00,Wunderground v.1.15,2013-02-13 10:25:00,
2013-02-13 05:26:00,39.1,30.1,29.85,East,96,1.0,3.0,70,0.00,,,0.00,Wunderground v.1.15,2013-02-13 10:26:00,
2013-02-13 05:32:00,39.1,30.1,29.85,East,95,1.0,2.0,70,0.00,,,0.00,Wunderground v.1.15,2013-02-13 10:32:00,
2013-02-13 05:35:00,39.0,30.0,29.84,NE,56,1.0,3.0,70,0.00,,,0.00,Wunderground v.1.15,2013-02-13 10:35:00,
2013-02-13 05:37:00,39.0,30.0,29.84,NE,56,1.0,3.0,70,0.00,,,0.00,Wunderground v.1.15,2013-02-13 10:37:00,
2013-02-13 05:38:00,39.0,30.0,29.84,NE,56,1.0,1.0,70,0.00,,,0.00,Wunderground v.1.15,2013-02-13 10:38:00,
2013-02-13 05:39:00,38.9,29.9,29.84,North,5,1.0,4.0,70,0.00,,,0.00,Wunderground v.1.15,2013-02-13 10:39:00,
2013-02-13 05:43:00,38.9,29.9,29.84,North,5,2.0,4.0,70,0.00,,,0.00,Wunderground v.1.15,2013-02-13 10:43:00,
2013-02-13 05:44:00,38.9,29.9,29.84,ENE,67,2.0,4.0,70,0.00,,,0.00,Wunderground v.1.15,2013-02-13 10:44:00,
2013-02-13 05:45:00,38.9,29.9,29.84,NE,55,2.0,4.0,70,0.00,,,0.00,Wunderground v.1.15,2013-02-13 10:45:00,
2013-02-13 05:47:00,38.8,29.8,29.83,NNW,344,2.0,4.0,70,0.00,,,0.00,Wunderground v.1.15,2013-02-13 10:47:00,
2013-02-13 05:52:00,38.8,30.2,29.84,North,10,2.0,4.0,71,0.00,,,0.00,Wunderground v.1.15,2013-02-13 10:52:00,
2013-02-13 05:54:00,38.7,30.1,29.84,North,5,2.0,4.0,71,0.00,,,0.00,Wunderground v.1.15,2013-02-13 10:54:00,
2013-02-13 05:58:00,38.6,30.0,29.84,NNW,342,2.0,2.0,71,0.00,,,0.00,Wunderground v.1.15,2013-02-13 10:58:00,
2013-02-13 05:59:00,38.6,30.0,29.84,NNW,339,2.0,2.0,71,0.00,,,0.00,Wunderground v.1.15,2013-02-13 10:59:00,
2013-02-13 06:01:00,38.5,29.9,29.85,North,9,2.0,2.0,71,0.00,,,0.00,Wunderground v.1.15,2013-02-13 11:01:00,
2013-02-13 06:03:00,38.5,30.3,29.84,NE,36,2.0,2.0,72,0.00,,,0.00,Wunderground v.1.15,2013-02-13 11:03:00,
2013-02-13 06:05:00,38.4,30.2,29.84,NE,36,1.0,2.0,72,0.00,,,0.00,Wunderground v.1.15,2013-02-13 11:05:00,
2013-02-13 06:07:00,38.4,30.2,29.84,NNE,29,1.0,2.0,72,0.00,,,0.00,Wunderground v.1.15,2013-02-13 11:07:00,
2013-02-13 06:09:00,38.4,30.2,29.84,NNE,29,1.0,1.0,72,0.00,,,0.00,Wunderground v.1.15,2013-02-13 11:09:00,
2013-02-13 06:11:00,38.3,30.1,29.85,North,5,1.0,3.0,72,0.00,,,0.00,Wunderground v.1.15,2013-02-13 11:11:00,
2013-02-13 06:12:00,38.3,30.1,29.85,NNE,32,1.0,3.0,72,0.00,,,0.00,Wunderground v.1.15,2013-02-13 11:12:00,
2013-02-13 06:17:00,38.2,30.3,29.85,NNE,27,2.0,3.0,73,0.00,,,0.00,Wunderground v.1.15,2013-02-13 11:17:00,
2013-02-13 06:18:00,38.2,30.3,29.85,NNW,329,2.0,2.0,73,0.00,,,0.00,Wunderground v.1.15,2013-02-13 11:18:00,
2013-02-13 06:20:00,38.2,30.0,29.85,North,360,2.0,3.0,72,0.00,,,0.00,Wunderground v.1.15,2013-02-13 11:20:00,
2013-02-13 06:22:00,38.2,30.3,29.85,North,350,2.0,3.0,73,0.00,,,0.00,Wunderground v.1.15,2013-02-13 11:22:00,
2013-02-13 06:28:00,38.0,30.1,29.86,North,360,2.0,2.0,73,0.00,,,0.00,Wunderground v.1.15,2013-02-13 11:28:00,
2013-02-13 06:30:00,38.0,30.1,29.86,NNW,338,2.0,2.0,73,0.00,,,0.00,Wunderground v.1.15,2013-02-13 11:30:00,
2013-02-13 06:33:00,38.0,30.4,29.86,North,349,2.0,2.0,74,0.00,,,0.00,Wunderground v.1.15,2013-02-13 11:33:00,
2013-02-13 06:35:00,38.0,30.1,29.86,NNW,345,2.0,3.0,73,0.00,,,0.00,Wunderground v.1.15,2013-02-13 11:35:00,
2013-02-13 06:36:00,38.0,30.1,29.86,NNE,19,2.0,4.0,73,0.00,,,0.00,Wunderground v.1.15,2013-02-13 11:36:00,
2013-02-13 06:39:00,38.0,30.1,29.86,North,10,3.0,3.0,73,0.00,,,0.00,Wunderground v.1.15,2013-02-13 11:39:00,
2013-02-13 06:41:00,38.0,30.1,29.86,NNW,336,3.0,4.0,73,0.00,,,0.00,Wunderground v.1.15,2013-02-13 11:41:00,
2013-02-13 06:43:00,38.0,30.1,29.86,NNW,328,3.0,4.0,73,0.00,,,0.00,Wunderground v.1.15,2013-02-13 11:43:00,
2013-02-13 06:46:00,38.0,30.1,29.86,North,9,3.0,4.0,73,0.00,,,0.00,Wunderground v.1.15,2013-02-13 11:46:00,
2013-02-13 06:47:00,38.0,30.1,29.86,North,5,3.0,3.0,73,0.00,,,0.00,Wunderground v.1.15,2013-02-13 11:47:00,
2013-02-13 06:49:00,38.0,30.1,29.86,North,5,3.0,3.0,73,0.00,,,0.00,Wunderground v.1.15,2013-02-13 11:49:00,
2013-02-13 06:51:00,38.0,30.4,29.86,NNE,31,2.0,3.0,74,0.00,,,0.00,Wunderground v.1.15,2013-02-13 11:51:00,
2013-02-13 06:54:00,38.0,30.1,29.85,NNE,14,2.0,3.0,73,0.00,,,0.00,Wunderground v.1.15,2013-02-13 11:54:00,
2013-02-13 06:58:00,37.9,30.4,29.85,NW,315,2.0,3.0,74,0.00,,,0.00,Wunderground v.1.15,2013-02-13 11:58:00,
2013-02-13 06:59:00,37.9,30.4,29.86,NNW,328,2.0,4.0,74,0.00,,,0.00,Wunderground v.1.15,2013-02-13 11:59:00,
2013-02-13 07:03:00,37.8,30.6,29.86,NW,317,2.0,4.0,75,0.00,,,0.00,Wunderground v.1.15,2013-02-13 12:03:00,
2013-02-13 07:05:00,37.8,30.6,29.86,NW,322,2.0,4.0,75,0.00,,,0.00,Wunderground v.1.15,2013-02-13 12:05:00,
2013-02-13 07:11:00,37.5,30.6,29.86,NNW,333,3.0,4.0,76,0.00,,,0.00,Wunderground v.1.15,2013-02-13 12:11:00,
2013-02-13 07:13:00,37.5,30.6,29.86,NW,319,4.0,7.0,76,0.00,,,0.00,Wunderground v.1.15,2013-02-13 12:13:00,
2013-02-13 07:15:00,37.4,30.5,29.86,NW,323,4.0,7.0,76,0.00,,,0.00,Wunderground v.1.15,2013-02-13 12:15:00,
2013-02-13 07:16:00,37.4,30.5,29.86,NW,314,4.0,7.0,76,0.00,,,0.00,Wunderground v.1.15,2013-02-13 12:16:00,
2013-02-13 07:17:00,37.3,30.4,29.86,NW,316,4.0,4.0,76,0.00,,,0.00,Wunderground v.1.15,2013-02-13 12:17:00,
2013-02-13 07:19:00,37.3,30.4,29.86,NW,316,4.0,4.0,76,0.00,,,0.00,Wunderground v.1.15,2013-02-13 12:19:00,
2013-02-13 07:21:00,37.2,30.3,29.86,NW,311,4.0,6.0,76,0.00,,,0.00,Wunderground v.1.15,2013-02-13 12:21:00,
2013-02-13 07:22:00,37.2,30.3,29.86,WNW,289,4.0,6.0,76,0.00,,,0.00,Wunderground v.1.15,2013-02-13 12:22:00,
2013-02-13 07:24:00,37.1,30.2,29.86,NW,309,4.0,6.0,76,0.00,,,0.00,Wunderground v.1.15,2013-02-13 12:24:00,
2013-02-13 07:26:00,37.0,30.1,29.86,NNW,346,4.0,6.0,76,0.00,,,0.00,Wunderground v.1.15,2013-02-13 12:26:00,
2013-02-13 07:28:00,37.0,30.1,29.86,NNW,347,4.0,4.0,76,0.00,,,0.00,Wunderground v.1.15,2013-02-13 12:28:00,
2013-02-13 07:30:00,37.0,30.1,29.86,North,355,4.0,5.0,76,0.00,,,0.00,Wunderground v.1.15,2013-02-13 12:30:00,
2013-02-13 07:31:00,36.9,30.0,29.86,NNE,19,4.0,5.0,76,0.00,,,0.00,Wunderground v.1.15,2013-02-13 12:31:00,
2013-02-13 07:33:00,36.9,30.0,29.87,NW,325,4.0,5.0,76,0.00,,,0.00,Wunderground v.1.15,2013-02-13 12:33:00,
2013-02-13 07:37:00,36.8,30.3,29.87,NNE,17,3.0,5.0,77,0.00,,,0.00,Wunderground v.1.15,2013-02-13 12:37:00,
2013-02-13 07:39:00,36.8,30.3,29.87,North,360,3.0,4.0,77,0.00,,,0.00,Wunderground v.1.15,2013-02-13 12:39:00,
2013-02-13 07:41:00,36.8,30.3,29.87,NNE,33,3.0,4.0,77,0.00,,,0.00,Wunderground v.1.15,2013-02-13 12:41:00,
2013-02-13 07:44:00,36.8,30.3,29.87,NNE,28,3.0,5.0,77,0.00,,,0.00,Wunderground v.1.15,2013-02-13 12:44:00,
2013-02-13 07:47:00,36.7,30.2,29.87,NNE,25,2.0,5.0,77,0.00,,,0.00,Wunderground v.1.15,2013-02-13 12:47:00,
2013-02-13 07:48:00,36.7,30.2,29.87,NNE,15,2.0,3.0,77,0.00,,,0.00,Wunderground v.1.15,2013-02-13 12:48:00,
2013-02-13 07:51:00,36.6,30.1,29.87,North,5,2.0,4.0,77,0.00,,,0.00,Wunderground v.1.15,2013-02-13 12:51:00,
2013-02-13 07:54:00,36.6,30.4,29.87,NNE,32,2.0,4.0,78,0.00,,,0.00,Wunderground v.1.15,2013-02-13 12:54:00,
2013-02-13 07:57:00,36.6,30.1,29.87,NNE,23,2.0,5.0,77,0.00,,,0.00,Wunderground v.1.15,2013-02-13 12:57:00,
2013-02-13 07:58:00,36.6,30.1,29.87,NNE,22,3.0,3.0,77,0.00,,,0.00,Wunderground v.1.15,2013-02-13 12:58:00,
2013-02-13 08:02:00,36.5,30.0,29.87,NNE,20,2.0,4.0,77,0.00,,,0.00,Wunderground v.1.15,2013-02-13 13:02:00,
2013-02-13 08:03:00,36.5,30.0,29.87,NNE,16,3.0,4.0,77,0.00,,,0.00,Wunderground v.1.15,2013-02-13 13:03:00,
2013-02-13 08:04:00,36.5,30.0,29.87,North,10,3.0,4.0,77,0.00,,,0.00,Wunderground v.1.15,2013-02-13 13:04:00,
2013-02-13 08:08:00,36.5,30.3,29.88,NE,38,3.0,3.0,78,0.00,,,0.00,Wunderground v.1.15,2013-02-13 13:08:00,
2013-02-13 08:09:00,36.5,30.3,29.88,NE,38,3.0,3.0,78,0.00,,,0.00,Wunderground v.1.15,2013-02-13 13:09:00,
2013-02-13 08:11:00,36.5,30.3,29.88,NNE,14,3.0,3.0,78,0.00,,,0.00,Wunderground v.1.15,2013-02-13 13:11:00,
2013-02-13 08:14:00,36.4,30.2,29.88,NW,322,3.0,3.0,78,0.00,,,0.00,Wunderground v.1.15,2013-02-13 13:14:00,
2013-02-13 08:15:00,36.4,29.9,29.88,NNW,346,3.0,3.0,77,0.00,,,0.00,Wunderground v.1.15,2013-02-13 13:15:00,
2013-02-13 08:19:00,36.4,29.9,29.88,NNE,32,3.0,3.0,77,0.00,,,0.00,Wunderground v.1.15,2013-02-13 13:19:00,
2013-02-13 08:21:00,36.4,30.2,29.88,NNE,16,3.0,3.0,78,0.00,,,0.00,Wunderground v.1.15,2013-02-13 13:21:00,
2013-02-13 08:25:00,36.4,30.2,29.88,NNE,24,3.0,5.0,78,0.00,,,0.00,Wunderground v.1.15,2013-02-13 13:25:00,
2013-02-13 08:27:00,36.3,30.1,29.88,NNE,24,3.0,5.0,78,0.00,,,0.00,Wunderground v.1.15,2013-02-13 13:27:00,
2013-02-13 08:28:00,36.3,30.1,29.88,NE,34,3.0,4.0,78,0.00,,,0.00,Wunderground v.1.15,2013-02-13 13:28:00,
2013-02-13 08:29:00,36.3,30.1,29.88,ENE,67,3.0,4.0,78,0.00,,,0.00,Wunderground v.1.15,2013-02-13 13:29:00,
2013-02-13 08:30:00,36.3,30.1,29.88,ENE,66,3.0,4.0,78,0.00,,,0.00,Wunderground v.1.15,2013-02-13 13:30:00,
2013-02-13 08:35:00,36.3,30.1,29.88,North,355,3.0,9.0,78,0.00,,,0.00,Wunderground v.1.15,2013-02-13 13:35:00,
2013-02-13 08:36:00,36.3,30.1,29.88,NW,309,3.0,9.0,78,0.00,,,0.00,Wunderground v.1.15,2013-02-13 13:36:00,
2013-02-13 08:37:00,36.3,30.1,29.88,North,5,3.0,9.0,78,0.00,,,0.00,Wunderground v.1.15,2013-02-13 13:37:00,
2013-02-13 08:40:00,36.2,30.0,29.89,NNE,27,3.0,6.0,78,0.00,,,0.00,Wunderground v.1.15,2013-02-13 13:40:00,
2013-02-13 08:42:00,36.2,30.3,29.89,North,355,3.0,6.0,79,0.00,,,0.00,Wunderground v.1.15,2013-02-13 13:42:00,
2013-02-13 08:43:00,36.1,30.2,29.89,NNE,21,3.0,6.0,79,0.00,,,0.00,Wunderground v.1.15,2013-02-13 13:43:00,
2013-02-13 08:47:00,35.9,30.3,29.88,NNE,15,3.0,3.0,80,0.00,,,0.00,Wunderground v.1.15,2013-02-13 13:47:00,
2013-02-13 08:48:00,35.9,30.3,29.89,NE,41,3.0,3.0,80,0.00,,,0.00,Wunderground v.1.15,2013-02-13 13:48:00,
2013-02-13 08:51:00,35.8,30.5,29.88,NNE,21,3.0,3.0,81,0.00,,,0.00,Wunderground v.1.15,2013-02-13 13:51:00,
2013-02-13 08:53:00,35.8,30.5,29.88,North,351,3.0,7.0,81,0.00,,,0.00,Wunderground v.1.15,2013-02-13 13:53:00,
2013-02-13 08:54:00,35.7,30.4,29.88,NNW,348,3.0,7.0,81,0.00,,,0.00,Wunderground v.1.15,2013-02-13 13:54:00,
2013-02-13 08:58:00,35.6,30.6,29.88,NNE,17,2.0,2.0,82,0.00,,,0.00,Wunderground v.1.15,2013-02-13 13:58:00,
2013-02-13 09:00:00,35.6,30.6,29.88,NNE,17,2.0,2.0,82,0.00,,,0.00,Wunderground v.1.15,2013-02-13 14:00:00,
2013-02-13 09:03:00,35.6,30.9,29.88,NE,40,2.0,3.0,83,0.00,,,0.00,Wunderground v.1.15,2013-02-13 14:03:00,
2013-02-13 09:05:00,35.5,30.8,29.88,North,360,2.0,4.0,83,0.00,,,0.00,Wunderground v.1.15,2013-02-13 14:05:00,
2013-02-13 09:06:00,35.5,30.8,29.88,NNE,32,2.0,4.0,83,0.00,,,0.00,Wunderground v.1.15,2013-02-13 14:06:00,
2013-02-13 09:10:00,35.4,30.8,29.89,NNW,329,3.0,6.0,83,0.00,,,0.00,Wunderground v.1.15,2013-02-13 14:10:00,
2013-02-13 09:12:00,35.3,30.9,29.89,NNW,340,3.0,6.0,84,0.00,,,0.00,Wunderground v.1.15,2013-02-13 14:12:00,
2013-02-13 09:14:00,35.3,30.9,29.89,NNW,345,3.0,6.0,84,0.00,,,0.00,Wunderground v.1.15,2013-02-13 14:14:00,
2013-02-13 09:16:00,35.2,30.9,29.89,NE,34,3.0,6.0,84,0.00,,,0.00,Wunderground v.1.15,2013-02-13 14:16:00,
2013-02-13 09:17:00,35.2,30.9,29.89,NNE,32,3.0,3.0,84,0.00,,,0.00,Wunderground v.1.15,2013-02-13 14:17:00,
2013-02-13 09:19:00,35.2,31.1,29.89,North,5,2.0,3.0,85,0.00,,,0.00,Wunderground v.1.15,2013-02-13 14:19:00,
2013-02-13 09:23:00,35.1,30.8,29.89,NNE,14,2.0,4.0,84,0.00,,,0.00,Wunderground v.1.15,2013-02-13 14:23:00,
2013-02-13 09:25:00,35.0,30.9,29.89,NNE,17,2.0,4.0,85,0.00,,,0.00,Wunderground v.1.15,2013-02-13 14:25:00,
2013-02-13 09:30:00,34.7,30.4,29.90,NNE,25,3.0,9.0,84,0.00,,,0.00,Wunderground v.1.15,2013-02-13 14:30:00,
2013-02-13 09:31:00,34.6,30.6,29.90,North,360,3.0,9.0,85,0.00,,,0.00,Wunderground v.1.15,2013-02-13 14:31:00,
2013-02-13 09:33:00,34.5,30.5,29.90,NNE,13,3.0,9.0,85,0.00,,,0.00,Wunderground v.1.15,2013-02-13 14:33:00,
2013-02-13 09:35:00,34.4,30.4,29.90,NNE,13,3.0,9.0,85,0.00,,,0.00,Wunderground v.1.15,2013-02-13 14:35:00,
2013-02-13 09:37:00,34.3,30.5,29.90,NE,35,3.0,3.0,86,0.00,,,0.00,Wunderground v.1.15,2013-02-13 14:37:00,
2013-02-13 09:40:00,34.2,30.2,29.90,NNW,335,3.0,6.0,85,0.00,,,0.00,Wunderground v.1.15,2013-02-13 14:40:00,
2013-02-13 09:43:00,34.1,30.4,29.90,North,349,2.0,6.0,86,0.00,,,0.00,Wunderground v.1.15,2013-02-13 14:43:00,
2013-02-13 09:46:00,34.1,30.4,29.90,North,9,2.0,6.0,86,0.00,,,0.00,Wunderground v.1.15,2013-02-13 14:46:00,
2013-02-13 09:48:00,34.0,30.5,29.90,NNW,337,2.0,2.0,87,0.00,,,0.00,Wunderground v.1.15,2013-02-13 14:48:00,
2013-02-13 09:53:00,33.8,30.3,29.90,NW,309,2.0,7.0,87,0.00,,,0.00,Wunderground v.1.15,2013-02-13 14:53:00,
2013-02-13 09:54:00,33.8,30.3,29.90,NW,309,2.0,7.0,87,0.00,,,0.00,Wunderground v.1.15,2013-02-13 14:54:00,
2013-02-13 09:56:00,33.7,30.2,29.90,NNW,336,2.0,7.0,87,0.00,,,0.00,Wunderground v.1.15,2013-02-13 14:56:00,
2013-02-13 09:57:00,33.6,30.1,29.90,NW,311,3.0,5.0,87,0.00,,,0.00,Wunderground v.1.15,2013-02-13 14:57:00,
2013-02-13 09:59:00,33.5,30.0,29.90,NNW,327,3.0,5.0,87,0.00,,,0.00,Wunderground v.1.15,2013-02-13 14:59:00,
2013-02-13 10:00:00,33.5,30.0,29.90,North,355,3.0,5.0,87,0.00,,,0.00,Wunderground v.1.15,2013-02-13 15:00:00,
2013-02-13 10:05:00,33.2,30.0,29.91,NNW,329,3.0,5.0,88,0.00,,,0.00,Wunderground v.1.15,2013-02-13 15:05:00,
2013-02-13 10:07:00,33.1,29.9,29.91,NW,319,3.0,5.0,88,0.00,,,0.00,Wunderground v.1.15,2013-02-13 15:07:00,
2013-02-13 10:10:00,33.0,29.8,29.91,North,5,3.0,4.0,88,0.00,,,0.00,Wunderground v.1.15,2013-02-13 15:10:00,
2013-02-13 10:11:00,32.9,29.7,29.90,NNW,337,3.0,5.0,88,0.00,,,0.00,Wunderground v.1.15,2013-02-13 15:11:00,
2013-02-13 10:12:00,32.8,29.6,29.91,NNW,328,4.0,5.0,88,0.00,,,0.00,Wunderground v.1.15,2013-02-13 15:12:00,
2013-02-13 10:17:00,32.7,29.5,29.91,NNE,13,4.0,4.0,88,0.00,,,0.00,Wunderground v.1.15,2013-02-13 15:17:00,
2013-02-13 10:18:00,32.6,29.4,29.91,NNW,345,4.0,4.0,88,0.00,,,0.00,Wunderground v.1.15,2013-02-13 15:18:00,
2013-02-13 10:19:00,32.6,29.4,29.91,NNW,345,3.0,4.0,88,0.00,,,0.00,Wunderground v.1.15,2013-02-13 15:19:00,
2013-02-13 10:23:00,32.6,29.7,29.91,NNE,25,3.0,4.0,89,0.00,,,0.00,Wunderground v.1.15,2013-02-13 15:23:00,
2013-02-13 10:28:00,32.5,29.6,29.91,NW,318,1.0,2.0,89,0.00,,,0.00,Wunderground v.1.15,2013-02-13 15:28:00,
2013-02-13 10:29:00,32.5,29.6,29.91,NW,318,1.0,2.0,89,0.00,,,0.00,Wunderground v.1.15,2013-02-13 15:29:00,
2013-02-13 10:31:00,32.5,29.6,29.91,NNE,30,1.0,3.0,89,0.00,,,0.00,Wunderground v.1.15,2013-02-13 15:31:00,
2013-02-13 10:33:00,32.4,29.5,29.91,NNE,27,1.0,4.0,89,0.00,,,0.00,Wunderground v.1.15,2013-02-13 15:33:00,
2013-02-13 10:34:00,32.4,29.5,29.91,NNE,27,2.0,4.0,89,0.00,,,0.00,Wunderground v.1.15,2013-02-13 15:34:00,
2013-02-13 10:38:00,32.3,29.4,29.91,NNE,24,2.0,2.0,89,0.00,,,0.00,Wunderground v.1.15,2013-02-13 15:38:00,
2013-02-13 10:41:00,32.3,29.7,29.91,NNE,31,2.0,2.0,90,0.00,,,0.00,Wunderground v.1.15,2013-02-13 15:41:00,
2013-02-13 10:43:00,32.2,29.6,29.91,NNE,17,1.0,2.0,90,0.00,,,0.00,Wunderground v.1.15,2013-02-13 15:43:00,
2013-02-13 10:44:00,32.3,29.7,29.91,NNE,29,1.0,2.0,90,0.00,,,0.00,Wunderground v.1.15,2013-02-13 15:44:00,
2013-02-13 10:46:00,32.2,29.6,29.91,NNW,343,1.0,4.0,90,0.00,,,0.00,Wunderground v.1.15,2013-02-13 15:46:00,
2013-02-13 10:49:00,32.2,29.6,29.92,North,360,1.0,2.0,90,0.00,,,0.00,Wunderground v.1.15,2013-02-13 15:49:00,
2013-02-13 10:50:00,32.1,29.5,29.91,NNE,17,1.0,2.0,90,0.00,,,0.00,Wunderground v.1.15,2013-02-13 15:50:00,
2013-02-13 10:53:00,32.1,29.5,29.92,NNE,13,1.0,2.0,90,0.00,,,0.00,Wunderground v.1.15,2013-02-13 15:53:00,
2013-02-13 10:54:00,32.1,29.5,29.92,NNE,13,1.0,2.0,90,0.00,,,0.00,Wunderground v.1.15,2013-02-13 15:54:00,
2013-02-13 10:56:00,32.0,29.4,29.92,NNE,31,1.0,3.0,90,0.00,,,0.00,Wunderground v.1.15,2013-02-13 15:56:00,
2013-02-13 10:59:00,32.0,29.4,29.92,NNE,31,1.0,1.0,90,0.00,,,0.00,Wunderground v.1.15,2013-02-13 15:59:00,
2013-02-13 11:01:00,32.0,29.7,29.92,NNE,31,1.0,1.0,91,0.00,,,0.00,Wunderground v.1.15,2013-02-13 16:01:00,
2013-02-13 11:05:00,32.1,29.8,29.92,North,355,0.0,1.0,91,0.00,,,0.00,Wunderground v.1.15,2013-02-13 16:05:00,
2013-02-13 11:08:00,32.2,29.9,29.92,North,355,0.0,0.0,91,0.00,,,0.00,Wunderground v.1.15,2013-02-13 16:08:00,
2013-02-13 11:12:00,32.1,29.8,29.92,North,5,0.0,1.0,91,0.00,,,0.00,Wunderground v.1.15,2013-02-13 16:12:00,
2013-02-13 11:13:00,32.2,29.9,29.92,North,5,0.0,1.0,91,0.00,,,0.00,Wunderground v.1.15,2013-02-13 16:13:00,
2013-02-13 11:16:00,32.2,29.9,29.92,North,5,0.0,1.0,91,0.00,,,0.00,Wunderground v.1.15,2013-02-13 16:16:00,
2013-02-13 11:18:00,32.2,29.9,29.92,North,5,0.0,0.0,91,0.00,,,0.00,Wunderground v.1.15,2013-02-13 16:18:00,
2013-02-13 11:19:00,32.3,30.0,29.92,North,5,0.0,0.0,91,0.00,,,0.00,Wunderground v.1.15,2013-02-13 16:19:00,
2013-02-13 11:23:00,32.3,30.0,29.92,NNE,19,0.0,0.0,91,0.00,,,0.00,Wunderground v.1.15,2013-02-13 16:23:00,
2013-02-13 11:25:00,32.4,30.1,29.92,NNE,19,0.0,0.0,91,0.00,,,0.00,Wunderground v.1.15,2013-02-13 16:25:00,
2013-02-13 11:26:00,32.4,30.1,29.92,NNE,19,0.0,0.0,91,0.00,,,0.00,Wunderground v.1.15,2013-02-13 16:26:00,
2013-02-13 11:31:00,32.5,30.2,29.92,NNE,19,0.0,0.0,91,0.00,,,0.00,Wunderground v.1.15,2013-02-13 16:31:00,
2013-02-13 11:35:00,32.6,30.3,29.92,NNE,19,0.0,0.0,91,0.00,,,0.00,Wunderground v.1.15,2013-02-13 16:35:00,
2013-02-13 11:38:00,32.6,30.3,29.92,NNE,19,0.0,0.0,91,0.00,,,0.00,Wunderground v.1.15,2013-02-13 16:38:00,
2013-02-13 11:40:00,32.8,30.5,29.92,NNE,19,0.0,0.0,91,0.00,,,0.00,Wunderground v.1.15,2013-02-13 16:40:00,
2013-02-13 11:41:00,32.9,30.6,29.92,NNE,19,0.0,0.0,91,0.00,,,0.00,Wunderground v.1.15,2013-02-13 16:41:00,
2013-02-13 11:43:00,32.9,30.6,29.92,NNE,19,0.0,0.0,91,0.00,,,0.01,Wunderground v.1.15,2013-02-13 16:43:00,
2013-02-13 11:45:00,33.0,30.7,29.92,NNE,19,0.0,0.0,91,0.00,,,0.01,Wunderground v.1.15,2013-02-13 16:45:00,
2013-02-13 11:47:00,33.2,30.9,29.92,NNE,19,0.0,0.0,91,0.00,,,0.01,Wunderground v.1.15,2013-02-13 16:47:00,
2013-02-13 11:48:00,33.3,31.0,29.92,NNE,19,0.0,0.0,91,0.00,,,0.01,Wunderground v.1.15,2013-02-13 16:48:00,
2013-02-13 11:50:00,33.4,31.1,29.92,North,5,0.0,1.0,91,0.00,,,0.01,Wunderground v.1.15,2013-02-13 16:50:00,
2013-02-13 11:53:00,33.4,31.1,29.92,North,5,0.0,1.0,91,0.06,,,0.02,Wunderground v.1.15,2013-02-13 16:53:00,
2013-02-13 11:54:00,33.5,31.2,29.92,North,5,0.0,1.0,91,0.06,,,0.02,Wunderground v.1.15,2013-02-13 16:54:00,
2013-02-13 11:56:00,33.5,31.2,29.92,NNW,338,0.0,3.0,91,0.06,,,0.02,Wunderground v.1.15,2013-02-13 16:56:00,
2013-02-13 11:59:00,33.6,31.3,29.92,NNW,333,1.0,1.0,91,0.06,,,0.02,Wunderground v.1.15,2013-02-13 16:59:00,
2013-02-13 12:00:00,33.6,31.3,29.92,NNW,333,1.0,1.0,91,0.06,,,0.02,Wunderground v.1.15,2013-02-13 17:00:00,
2013-02-13 12:03:00,34.8,31.6,30.01,SSW,202,5.0,5.0,88,0.00,,,0.00,Wunderground v.1.15,2013-02-13 17:03:00,
2013-02-13 12:04:00,34.8,31.6,30.01,SSW,207,5.0,5.0,88,0.00,,,0.00,Wunderground v.1.15,2013-02-13 17:04:00,
2013-02-13 12:05:00,34.8,31.6,30.01,South,178,5.0,5.0,88,0.00,,,0.00,Wunderground v.1.15,2013-02-13 17:05:00,
2013-02-13 12:06:00,34.0,31.6,29.92,NNW,333,0.0,2.0,91,0.05,,,0.03,Wunderground v.1.15,2013-02-13 17:06:00,
2013-02-13 12:07:00,34.9,31.7,30.00,South,171,5.0,6.0,88,0.00,,,0.00,Wunderground v.1.15,2013-02-13 17:07:00,
2013-02-13 12:08:00,34.0,31.6,29.92,NNW,333,0.0,2.0,91,0.05,,,0.03,Wunderground v.1.15,2013-02-13 17:08:00,
2013-02-13 12:09:00,35.0,31.8,30.00,SSW,194,5.0,9.0,88,0.00,,,0.00,Wunderground v.1.15,2013-02-13 17:09:00,
2013-02-13 12:10:00,35.0,31.8,30.01,West,259,4.0,9.0,88,0.00,,,0.00,Wunderground v.1.15,2013-02-13 17:10:00,
2013-02-13 12:11:00,33.9,31.3,29.92,North,9,1.0,4.0,90,0.10,,,0.04,Wunderground v.1.15,2013-02-13 17:11:00,
2013-02-13 12:12:00,35.0,31.8,30.01,SSW,204,5.0,9.0,88,0.00,,,0.00,Wunderground v.1.15,2013-02-13 17:12:00,
2013-02-13 12:13:00,33.9,31.3,29.92,North,9,1.0,4.0,90,0.10,,,0.04,Wunderground v.1.15,2013-02-13 17:13:00,
2013-02-13 12:14:00,34.8,31.3,30.01,SW,219,4.0,9.0,87,0.00,,,0.00,Wunderground v.1.15,2013-02-13 17:14:00,
2013-02-13 12:15:00,34.8,31.6,30.01,South,183,4.0,9.0,88,0.00,,,0.00,Wunderground v.1.15,2013-02-13 17:15:00,
2013-02-13 12:16:00,34.8,31.6,30.01,SSW,198,4.0,9.0,88,0.00,,,0.00,Wunderground v.1.15,2013-02-13 17:16:00,
2013-02-13 12:17:00,34.0,31.4,29.92,NW,322,1.0,1.0,90,0.09,,,0.04,Wunderground v.1.15,2013-02-13 17:17:00,
2013-02-13 12:18:00,34.8,31.6,30.01,SW,217,3.0,9.0,88,0.00,,,0.00,Wunderground v.1.15,2013-02-13 17:18:00,
2013-02-13 12:19:00,34.8,31.6,30.01,SSW,196,3.0,9.0,88,0.00,,,0.00,Wunderground v.1.15,2013-02-13 17:19:00,
2013-02-13 12:20:00,34.8,31.6,30.01,SW,221,3.0,4.0,88,0.00,,,0.00,Wunderground v.1.15,2013-02-13 17:20:00,
2013-02-13 12:21:00,34.1,31.5,29.92,North,355,1.0,3.0,90,0.06,,,0.04,Wunderground v.1.15,2013-02-13 17:21:00,
2013-02-13 12:22:00,34.1,31.5,29.92,NNE,31,1.0,3.0,90,0.05,,,0.04,Wunderground v.1.15,2013-02-13 17:22:00,
2013-02-13 12:23:00,34.8,31.6,30.01,SSW,213,4.0,8.0,88,0.00,,,0.00,Wunderground v.1.15,2013-02-13 17:23:00,
2013-02-13 12:24:00,34.8,31.6,30.01,SSW,207,4.0,8.0,88,0.00,,,0.00,Wunderground v.1.15,2013-02-13 17:24:00,
2013-02-13 12:25:00,34.9,31.7,30.01,South,190,3.0,8.0,88,0.00,,,0.00,Wunderground v.1.15,2013-02-13 17:25:00,
2013-02-13 12:26:00,34.9,31.7,30.01,SSW,212,4.0,8.0,88,0.00,,,0.00,Wunderground v.1.15,2013-02-13 17:26:00,
2013-02-13 12:27:00,33.9,31.3,29.92,North,9,2.0,3.0,90,0.04,,,0.04,Wunderground v.1.15,2013-02-13 17:27:00,
2013-02-13 12:28:00,34.0,31.4,29.92,NW,315,2.0,2.0,90,0.00,,,0.04,Wunderground v.1.15,2013-02-13 17:28:00,
2013-02-13 12:29:00,34.8,31.6,30.01,SSW,192,4.0,8.0,88,0.00,,,0.00,Wunderground v.1.15,2013-02-13 17:29:00,
2013-02-13 12:30:00,34.0,31.4,29.92,NNE,28,2.0,3.0,90,0.00,,,0.05,Wunderground v.1.15,2013-02-13 17:30:00,
2013-02-13 12:31:00,34.8,31.6,30.01,South,175,4.0,4.0,88,0.00,,,0.00,Wunderground v.1.15,2013-02-13 17:31:00,
2013-02-13 12:32:00,34.8,31.6,30.01,SW,225,3.0,6.0,88,0.00,,,0.00,Wunderground v.1.15,2013-02-13 17:32:00,
2013-02-13 12:33:00,34.1,31.7,29.92,NW,323,2.0,4.0,91,0.00,,,0.05,Wunderground v.1.15,2013-02-13 17:33:00,
2013-02-13 12:34:00,34.9,31.7,30.01,SSW,211,3.0,6.0,88,0.00,,,0.00,Wunderground v.1.15,2013-02-13 17:34:00,
2013-02-13 12:35:00,34.0,31.4,29.92,NNW,341,2.0,5.0,90,0.00,,,0.05,Wunderground v.1.15,2013-02-13 17:35:00,
2013-02-13 12:36:00,34.9,31.7,30.01,SSW,204,3.0,6.0,88,0.00,,,0.00,Wunderground v.1.15,2013-02-13 17:36:00,
2013-02-13 12:37:00,34.9,31.7,30.01,SW,236,3.0,6.0,88,0.00,,,0.00,Wunderground v.1.15,2013-02-13 17:37:00,
2013-02-13 12:38:00,34.0,31.4,29.92,NNW,348,2.0,2.0,90,0.00,,,0.05,Wunderground v.1.15,2013-02-13 17:38:00,
2013-02-13 12:39:00,34.9,31.7,30.01,SSW,207,3.0,6.0,88,0.00,,,0.00,Wunderground v.1.15,2013-02-13 17:39:00,
2013-02-13 12:40:00,34.9,31.7,30.01,SSW,199,3.0,5.0,88,0.00,,,0.00,Wunderground v.1.15,2013-02-13 17:40:00,
2013-02-13 12:41:00,34.0,31.6,29.92,NW,323,2.0,3.0,91,0.05,,,0.06,Wunderground v.1.15,2013-02-13 17:41:00,
2013-02-13 12:42:00,34.9,31.7,30.01,SW,223,3.0,5.0,88,0.00,,,0.00,Wunderground v.1.15,2013-02-13 17:42:00,
2013-02-13 12:43:00,34.9,31.7,30.01,SSW,200,3.0,5.0,88,0.00,,,0.00,Wunderground v.1.15,2013-02-13 17:43:00,
2013-02-13 12:44:00,34.0,31.6,29.92,WNW,292,2.0,3.0,91,0.05,,,0.06,Wunderground v.1.15,2013-02-13 17:44:00,
2013-02-13 12:45:00,34.9,31.7,30.01,SSW,193,3.0,5.0,88,0.00,,,0.00,Wunderground v.1.15,2013-02-13 17:45:00,
2013-02-13 12:46:00,34.0,31.6,29.92,NNW,333,2.0,3.0,91,0.05,,,0.06,Wunderground v.1.15,2013-02-13 17:46:00,
2013-02-13 12:47:00,34.8,31.6,30.01,South,189,3.0,5.0,88,0.00,,,0.00,Wunderground v.1.15,2013-02-13 17:47:00,
2013-02-13 12:48:00,34.1,31.7,29.92,NW,322,2.0,2.0,91,0.05,,,0.06,Wunderground v.1.15,2013-02-13 17:48:00,
2013-02-13 12:49:00,34.1,31.7,29.92,NW,316,1.0,2.0,91,0.05,,,0.06,Wunderground v.1.15,2013-02-13 17:49:00,
2013-02-13 12:50:00,34.2,31.8,29.92,NW,316,1.0,2.0,91,0.05,,,0.06,Wunderground v.1.15,2013-02-13 17:50:00,
2013-02-13 12:51:00,34.7,31.5,30.01,SSW,202,3.0,3.0,88,0.00,,,0.00,Wunderground v.1.15,2013-02-13 17:51:00,
2013-02-13 12:52:00,34.7,31.5,30.00,South,186,3.0,5.0,88,0.00,,,0.00,Wunderground v.1.15,2013-02-13 17:52:00,
2013-02-13 12:53:00,34.7,31.5,30.00,SSW,203,3.0,6.0,88,0.00,,,0.00,Wunderground v.1.15,2013-02-13 17:53:00,
2013-02-13 12:54:00,34.8,31.6,30.00,SSW,206,3.0,6.0,88,0.00,,,0.00,Wunderground v.1.15,2013-02-13 17:54:00,
2013-02-13 12:55:00,34.4,32.0,29.92,NW,316,1.0,2.0,91,0.04,,,0.06,Wunderground v.1.15,2013-02-13 17:55:00,
2013-02-13 12:56:00,34.8,31.6,30.00,SSW,198,3.0,6.0,88,0.00,,,0.00,Wunderground v.1.15,2013-02-13 17:56:00,
2013-02-13 12:57:00,34.8,31.6,30.01,WSW,242,3.0,6.0,88,0.00,,,0.00,Wunderground v.1.15,2013-02-13 17:57:00,
2013-02-13 12:58:00,34.7,32.6,29.92,NW,316,0.0,0.0,92,0.00,,,0.06,Wunderground v.1.15,2013-02-13 17:58:00,
2013-02-13 12:59:00,34.7,31.5,30.00,SSW,198,3.0,6.0,88,0.00,,,0.00,Wunderground v.1.15,2013-02-13 17:59:00,
2013-02-13 13:00:00,34.6,31.4,30.01,South,188,3.0,3.0,88,0.00,,,0.00,Wunderground v.1.15,2013-02-13 18:00:00,
2013-02-13 13:01:00,34.6,31.7,30.01,SSW,192,3.0,3.0,89,0.00,,,0.00,Wunderground v.1.15,2013-02-13 18:01:00,
2013-02-13 13:02:00,34.8,32.7,29.92,NW,317,0.0,3.0,92,0.00,,,0.06,Wunderground v.1.15,2013-02-13 18:02:00,
2013-02-13 13:03:00,34.9,32.8,29.92,NW,317,1.0,3.0,92,0.00,,,0.06,Wunderground v.1.15,2013-02-13 18:03:00,
2013-02-13 13:04:00,34.9,32.8,29.92,North,355,1.0,3.0,92,0.00,,,0.07,Wunderground v.1.15,2013-02-13 18:04:00,
2013-02-13 13:05:00,34.6,31.7,30.01,SSW,201,3.0,5.0,89,0.00,,,0.00,Wunderground v.1.15,2013-02-13 18:05:00,
2013-02-13 13:06:00,35.0,32.6,29.92,North,355,1.0,3.0,91,0.00,,,0.07,Wunderground v.1.15,2013-02-13 18:06:00,
2013-02-13 13:07:00,34.6,31.7,30.01,South,184,3.0,5.0,89,0.00,,,0.00,Wunderground v.1.15,2013-02-13 18:07:00,
2013-02-13 13:08:00,34.5,31.6,30.01,South,185,3.0,5.0,89,0.00,,,0.00,Wunderground v.1.15,2013-02-13 18:08:00,
2013-02-13 13:09:00,35.3,32.9,29.92,NNW,345,1.0,2.0,91,0.00,,,0.07,Wunderground v.1.15,2013-02-13 18:09:00,
2013-02-13 13:10:00,34.4,31.5,30.01,South,191,2.0,2.0,89,0.00,,,0.00,Wunderground v.1.15,2013-02-13 18:10:00,
2013-02-13 13:11:00,35.3,32.9,29.91,NW,310,1.0,2.0,91,0.00,,,0.07,Wunderground v.1.15,2013-02-13 18:11:00,
2013-02-13 13:12:00,34.4,31.5,30.01,SSW,204,3.0,5.0,89,0.00,,,0.00,Wunderground v.1.15,2013-02-13 18:12:00,
2013-02-13 13:13:00,34.4,31.5,30.00,SW,220,3.0,5.0,89,0.00,,,0.00,Wunderground v.1.15,2013-02-13 18:13:00,
2013-02-13 13:14:00,35.6,33.2,29.91,NW,318,1.0,2.0,91,0.06,,,0.08,Wunderground v.1.15,2013-02-13 18:14:00,
2013-02-13 13:15:00,34.5,31.6,30.01,SSW,202,3.0,5.0,89,0.00,,,0.00,Wunderground v.1.15,2013-02-13 18:15:00,
2013-02-13 13:16:00,35.7,33.3,29.91,NNE,19,1.0,3.0,91,0.06,,,0.08,Wunderground v.1.15,2013-02-13 18:16:00,
2013-02-13 13:17:00,34.5,31.6,30.01,SW,221,3.0,5.0,89,0.00,,,0.00,Wunderground v.1.15,2013-02-13 18:17:00,
2013-02-13 13:18:00,34.5,31.6,30.01,SW,229,3.0,5.0,89,0.00,,,0.00,Wunderground v.1.15,2013-02-13 18:18:00,
2013-02-13 13:19:00,35.7,33.3,29.91,NNE,15,1.0,3.0,91,0.06,,,0.08,Wunderground v.1.15,2013-02-13 18:19:00,
2013-02-13 13:20:00,35.7,33.3,29.91,WSW,254,1.0,3.0,91,0.06,,,0.08,Wunderground v.1.15,2013-02-13 18:20:00,
2013-02-13 13:21:00,35.7,33.1,29.91,WNW,290,1.0,3.0,90,0.06,,,0.08,Wunderground v.1.15,2013-02-13 18:21:00,
2013-02-13 13:22:00,34.4,31.5,30.01,SSW,196,3.0,5.0,89,0.00,,,0.00,Wunderground v.1.15,2013-02-13 18:22:00,
2013-02-13 13:23:00,34.3,31.4,30.01,South,191,3.0,6.0,89,0.00,,,0.00,Wunderground v.1.15,2013-02-13 18:23:00,
2013-02-13 13:24:00,34.3,31.4,30.01,SSW,199,3.0,6.0,89,0.00,,,0.00,Wunderground v.1.15,2013-02-13 18:24:00,
2013-02-13 13:25:00,35.7,33.1,29.91,NW,311,2.0,3.0,90,0.05,,,0.08,Wunderground v.1.15,2013-02-13 18:25:00,
2013-02-13 13:27:00,35.8,33.4,29.91,NW,311,2.0,3.0,91,0.05,,,0.08,Wunderground v.1.15,2013-02-13 18:27:00,
2013-02-13 13:28:00,35.9,33.3,29.91,NW,311,1.0,1.0,90,0.04,,,0.08,Wunderground v.1.15,2013-02-13 18:28:00,
2013-02-13 13:31:00,34.4,31.5,30.01,SW,219,3.0,5.0,89,0.00,,,0.00,Wunderground v.1.15,2013-02-13 18:31:00,
2013-02-13 13:33:00,36.1,33.7,29.91,WSW,246,1.0,3.0,91,0.00,,,0.08,Wunderground v.1.15,2013-02-13 18:33:00,
2013-02-13 13:35:00,36.2,33.5,29.91,WSW,248,1.0,3.0,90,0.00,,,0.08,Wunderground v.1.15,2013-02-13 18:35:00,
2013-02-13 13:38:00,36.3,33.4,29.91,West,265,1.0,1.0,89,0.00,,,0.08,Wunderground v.1.15,2013-02-13 18:38:00,
2013-02-13 13:40:00,36.4,33.7,29.90,West,265,1.0,2.0,90,0.00,,,0.08,Wunderground v.1.15,2013-02-13 18:40:00,
2013-02-13 13:41:00,36.5,33.8,29.90,West,265,1.0,2.0,90,0.00,,,0.08,Wunderground v.1.15,2013-02-13 18:41:00,
2013-02-13 13:46:00,36.6,33.7,29.90,West,265,1.0,2.0,89,0.00,,,0.08,Wunderground v.1.15,2013-02-13 18:46:00,
2013-02-13 13:47:00,36.8,33.9,29.90,West,265,1.0,2.0,89,0.00,,,0.08,Wunderground v.1.15,2013-02-13 18:47:00,
2013-02-13 13:51:00,37.3,34.4,29.90,SSW,208,1.0,4.0,89,0.00,,,0.08,Wunderground v.1.15,2013-02-13 18:51:00,
2013-02-13 13:55:00,37.5,34.6,29.90,SSW,210,1.0,4.0,89,0.00,,,0.08,Wunderground v.1.15,2013-02-13 18:55:00,
2013-02-13 13:57:00,37.7,34.5,29.90,SSW,209,2.0,2.0,88,0.00,,,0.08,Wunderground v.1.15,2013-02-13 18:57:00,
2013-02-13 14:02:00,38.0,34.8,29.90,SW,215,1.0,2.0,88,0.00,,,0.08,Wunderground v.1.15,2013-02-13 19:02:00,
2013-02-13 14:03:00,38.1,34.9,29.90,SW,215,1.0,2.0,88,0.00,,,0.08,Wunderground v.1.15,2013-02-13 19:03:00,
2013-02-13 14:05:00,38.2,34.7,29.90,SW,236,1.0,3.0,87,0.00,,,0.08,Wunderground v.1.15,2013-02-13 19:05:00,
2013-02-13 14:08:00,38.1,34.3,29.89,SSW,207,1.0,1.0,86,0.00,,,0.08,Wunderground v.1.15,2013-02-13 19:08:00,
2013-02-13 14:09:00,38.0,34.2,29.89,SSW,200,1.0,4.0,86,0.00,,,0.08,Wunderground v.1.15,2013-02-13 19:09:00,
2013-02-13 14:13:00,38.0,34.2,29.89,SSW,209,2.0,4.0,86,0.00,,,0.08,Wunderground v.1.15,2013-02-13 19:13:00,
2013-02-13 14:14:00,38.0,34.5,29.89,WSW,237,2.0,4.0,87,0.00,,,0.08,Wunderground v.1.15,2013-02-13 19:14:00,
2013-02-13 14:16:00,38.1,34.6,29.89,South,183,2.0,4.0,87,0.00,,,0.08,Wunderground v.1.15,2013-02-13 19:16:00,
2013-02-13 14:17:00,38.1,34.3,29.89,SSW,198,2.0,2.0,86,0.00,,,0.08,Wunderground v.1.15,2013-02-13 19:17:00,
2013-02-13 14:22:00,38.4,34.9,29.89,SSW,196,2.0,5.0,87,0.00,,,0.08,Wunderground v.1.15,2013-02-13 19:22:00,
2013-02-13 14:23:00,38.4,34.3,29.89,SW,224,3.0,5.0,85,0.00,,,0.08,Wunderground v.1.15,2013-02-13 19:23:00,
2013-02-13 14:24:00,38.6,34.8,29.88,South,188,3.0,5.0,86,0.00,,,0.08,Wunderground v.1.15,2013-02-13 19:24:00,
2013-02-13 14:26:00,38.7,35.2,29.88,South,173,2.0,5.0,87,0.00,,,0.08,Wunderground v.1.15,2013-02-13 19:26:00,
2013-02-13 14:27:00,38.8,35.0,29.88,South,180,2.0,2.0,86,0.00,,,0.08,Wunderground v.1.15,2013-02-13 19:27:00,
2013-02-13 14:31:00,39.1,35.0,29.89,NW,313,2.0,3.0,85,0.00,,,0.08,Wunderground v.1.15,2013-02-13 19:31:00,
2013-02-13 14:32:00,39.3,35.5,29.89,WSW,248,2.0,3.0,86,0.00,,,0.08,Wunderground v.1.15,2013-02-13 19:32:00,
2013-02-13 14:37:00,39.4,35.3,29.89,WSW,250,2.0,4.0,85,0.00,,,0.08,Wunderground v.1.15,2013-02-13 19:37:00,
2013-02-13 14:39:00,39.2,34.5,29.89,West,276,3.0,4.0,83,0.00,,,0.08,Wunderground v.1.15,2013-02-13 19:39:00,
2013-02-13 14:42:00,39.2,34.8,29.89,NW,313,2.0,4.0,84,0.00,,,0.08,Wunderground v.1.15,2013-02-13 19:42:00,
2013-02-13 14:44:00,39.3,34.9,29.89,NW,322,3.0,4.0,84,0.00,,,0.08,Wunderground v.1.15,2013-02-13 19:44:00,
2013-02-13 14:45:00,39.3,34.6,29.89,NW,304,2.0,4.0,83,0.00,,,0.08,Wunderground v.1.15,2013-02-13 19:45:00,
2013-02-13 14:46:00,39.2,34.5,29.89,WNW,287,2.0,4.0,83,0.00,,,0.08,Wunderground v.1.15,2013-02-13 19:46:00,
2013-02-13 14:52:00,39.2,34.5,29.89,SW,233,2.0,3.0,83,0.00,,,0.08,Wunderground v.1.15,2013-02-13 19:52:00,
2013-02-13 14:53:00,39.2,34.5,29.89,WNW,286,2.0,3.0,83,0.00,,,0.08,Wunderground v.1.15,2013-02-13 19:53:00,
2013-02-13 14:54:00,39.3,34.6,29.89,WSW,240,2.0,3.0,83,0.00,,,0.08,Wunderground v.1.15,2013-02-13 19:54:00,
2013-02-13 14:58:00,39.3,34.3,29.89,SW,235,3.0,4.0,82,0.00,,,0.08,Wunderground v.1.15,2013-02-13 19:58:00,
2013-02-13 14:59:00,39.4,34.7,29.89,West,269,3.0,4.0,83,0.00,,,0.08,Wunderground v.1.15,2013-02-13 19:59:00,
2013-02-13 15:00:00,39.5,35.1,29.89,West,278,3.0,4.0,84,0.00,,,0.08,Wunderground v.1.15,2013-02-13 20:00:00,
2013-02-13 15:02:00,39.5,34.8,29.89,West,271,3.0,4.0,83,0.00,,,0.08,Wunderground v.1.15,2013-02-13 20:02:00,
2013-02-13 15:03:00,39.5,34.8,29.89,West,271,3.0,4.0,83,0.00,,,0.08,Wunderground v.1.15,2013-02-13 20:03:00,
2013-02-13 15:07:00,39.3,34.3,29.89,WNW,300,3.0,3.0,82,0.00,,,0.08,Wunderground v.1.15,2013-02-13 20:07:00,
2013-02-13 15:09:00,39.3,34.0,29.90,West,273,3.0,4.0,81,0.00,,,0.08,Wunderground v.1.15,2013-02-13 20:09:00,
2013-02-13 15:13:00,39.3,34.0,29.90,West,259,3.0,5.0,81,0.00,,,0.08,Wunderground v.1.15,2013-02-13 20:13:00,
2013-02-13 15:15:00,39.5,34.8,29.90,NW,310,3.0,5.0,83,0.00,,,0.08,Wunderground v.1.15,2013-02-13 20:15:00,
2013-02-13 15:17:00,39.5,33.8,29.90,WNW,286,3.0,4.0,80,0.00,,,0.08,Wunderground v.1.15,2013-02-13 20:17:00,
2013-02-13 15:19:00,39.5,33.8,29.90,SW,235,3.0,4.0,80,0.00,,,0.08,Wunderground v.1.15,2013-02-13 20:19:00,
2013-02-13 15:21:00,39.6,34.2,29.90,WNW,285,3.0,4.0,81,0.00,,,0.08,Wunderground v.1.15,2013-02-13 20:21:00,
2013-02-13 15:22:00,39.7,34.0,29.90,WNW,282,3.0,4.0,80,0.00,,,0.08,Wunderground v.1.15,2013-02-13 20:22:00,
2013-02-13 15:26:00,40.1,34.4,29.90,WSW,248,4.0,6.0,80,0.00,,,0.08,Wunderground v.1.15,2013-02-13 20:26:00,
2013-02-13 15:28:00,40.2,34.8,29.90,SW,227,3.0,5.0,81,0.00,,,0.08,Wunderground v.1.15,2013-02-13 20:28:00,
2013-02-13 15:29:00,40.4,34.7,29.90,West,264,3.0,7.0,80,0.00,,,0.08,Wunderground v.1.15,2013-02-13 20:29:00,
2013-02-13 15:32:00,40.4,34.4,29.90,WSW,242,4.0,7.0,79,0.00,,,0.08,Wunderground v.1.15,2013-02-13 20:32:00,
2013-02-13 15:34:00,40.6,34.9,29.90,West,277,4.0,7.0,80,0.00,,,0.08,Wunderground v.1.15,2013-02-13 20:34:00,
2013-02-13 15:36:00,40.6,34.3,29.90,West,271,4.0,7.0,78,0.00,,,0.08,Wunderground v.1.15,2013-02-13 20:36:00,
2013-02-13 15:38:00,40.6,33.6,29.91,WNW,295,4.0,6.0,76,0.00,,,0.08,Wunderground v.1.15,2013-02-13 20:38:00,
2013-02-13 15:41:00,40.6,34.0,29.91,West,275,4.0,5.0,77,0.00,,,0.08,Wunderground v.1.15,2013-02-13 20:41:00,
2013-02-13 15:42:00,40.7,34.0,29.91,NW,316,4.0,5.0,77,0.00,,,0.08,Wunderground v.1.15,2013-02-13 20:42:00,
2013-02-13 15:46:00,40.7,33.7,29.91,WNW,300,4.0,5.0,76,0.00,,,0.08,Wunderground v.1.15,2013-02-13 20:46:00,
2013-02-13 15:47:00,40.6,33.3,29.91,West,273,4.0,5.0,75,0.00,,,0.08,Wunderground v.1.15,2013-02-13 20:47:00,
2013-02-13 15:49:00,40.6,33.6,29.91,WNW,292,4.0,6.0,76,0.00,,,0.08,Wunderground v.1.15,2013-02-13 20:49:00,
2013-02-13 15:52:00,40.8,34.1,29.91,WNW,289,4.0,4.0,77,0.00,,,0.08,Wunderground v.1.15,2013-02-13 20:52:00,
2013-02-13 15:53:00,41.1,33.8,29.91,WNW,302,4.0,4.0,75,0.00,,,0.08,Wunderground v.1.15,2013-02-13 20:53:00,
2013-02-13 15:54:00,41.4,33.7,29.91,West,277,4.0,4.0,74,0.00,,,0.08,Wunderground v.1.15,2013-02-13 20:54:00,
2013-02-13 15:57:00,41.8,34.5,29.91,WSW,251,4.0,4.0,75,0.00,,,0.08,Wunderground v.1.15,2013-02-13 20:57:00,
2013-02-13 16:00:00,42.2,33.8,29.91,WNW,286,4.0,7.0,72,0.00,,,0.08,Wunderground v.1.15,2013-02-13 21:00:00,
2013-02-13 16:01:00,42.3,34.6,29.91,WNW,288,4.0,7.0,74,0.00,,,0.08,Wunderground v.1.15,2013-02-13 21:01:00,
2013-02-13 16:07:00,41.7,34.0,29.91,SW,218,4.0,7.0,74,0.00,,,0.08,Wunderground v.1.15,2013-02-13 21:07:00,
2013-02-13 16:09:00,41.2,33.5,29.91,SW,225,4.0,4.0,74,0.00,,,0.08,Wunderground v.1.15,2013-02-13 21:09:00,
2013-02-13 16:11:00,40.9,33.6,29.91,WSW,257,4.0,4.0,75,0.00,,,0.08,Wunderground v.1.15,2013-02-13 21:11:00,
2013-02-13 16:13:00,40.8,33.2,29.91,SW,224,3.0,5.0,74,0.00,,,0.08,Wunderground v.1.15,2013-02-13 21:13:00,
2013-02-13 16:17:00,41.2,33.5,29.92,West,279,3.0,4.0,74,0.00,,,0.08,Wunderground v.1.15,2013-02-13 21:17:00,
2013-02-13 16:18:00,41.3,33.6,29.92,WSW,248,3.0,4.0,74,0.00,,,0.08,Wunderground v.1.15,2013-02-13 21:18:00,
2013-02-13 16:20:00,41.4,33.4,29.92,NW,321,3.0,4.0,73,0.00,,,0.08,Wunderground v.1.15,2013-02-13 21:20:00,
2013-02-13 16:23:00,41.4,33.7,29.92,NW,310,3.0,4.0,74,0.00,,,0.08,Wunderground v.1.15,2013-02-13 21:23:00,
2013-02-13 16:24:00,41.3,33.6,29.92,NW,312,3.0,4.0,74,0.00,,,0.08,Wunderground v.1.15,2013-02-13 21:24:00,
2013-02-13 16:30:00,41.0,32.7,29.92,WNW,298,3.0,5.0,72,0.00,,,0.08,Wunderground v.1.15,2013-02-13 21:30:00,
2013-02-13 16:34:00,41.0,33.7,29.92,WSW,248,3.0,5.0,75,0.00,,,0.08,Wunderground v.1.15,2013-02-13 21:34:00,
2013-02-13 16:35:00,41.0,34.0,29.92,West,267,3.0,5.0,76,0.00,,,0.08,Wunderground v.1.15,2013-02-13 21:35:00,
2013-02-13 16:37:00,41.0,33.7,29.92,SW,225,3.0,5.0,75,0.00,,,0.08,Wunderground v.1.15,2013-02-13 21:37:00,
2013-02-13 16:39:00,40.9,33.2,29.92,WSW,248,3.0,5.0,74,0.00,,,0.08,Wunderground v.1.15,2013-02-13 21:39:00,
2013-02-13 16:40:00,40.8,33.2,29.92,SW,234,3.0,5.0,74,0.00,,,0.08,Wunderground v.1.15,2013-02-13 21:40:00,
2013-02-13 16:41:00,40.7,33.4,29.92,West,267,3.0,5.0,75,0.00,,,0.08,Wunderground v.1.15,2013-02-13 21:41:00,
2013-02-13 16:45:00,40.9,33.9,29.92,SW,229,3.0,5.0,76,0.00,,,0.08,Wunderground v.1.15,2013-02-13 21:45:00,
2013-02-13 16:48:00,41.3,34.0,29.92,SW,232,3.0,3.0,75,0.00,,,0.08,Wunderground v.1.15,2013-02-13 21:48:00,
2013-02-13 16:49:00,41.5,34.2,29.92,SSW,200,3.0,6.0,75,0.00,,,0.08,Wunderground v.1.15,2013-02-13 21:49:00,
2013-02-13 16:50:00,41.7,34.4,29.92,SW,228,3.0,6.0,75,0.00,,,0.08,Wunderground v.1.15,2013-02-13 21:50:00,
2013-02-13 16:53:00,41.8,34.1,29.92,WSW,240,3.0,6.0,74,0.00,,,0.08,Wunderground v.1.15,2013-02-13 21:53:00,
2013-02-13 16:55:00,41.8,34.5,29.92,SW,215,3.0,8.0,75,0.00,,,0.08,Wunderground v.1.15,2013-02-13 21:55:00,
2013-02-13 17:00:00,41.6,34.6,29.92,WNW,290,4.0,7.0,76,0.00,,,0.08,Wunderground v.1.15,2013-02-13 22:00:00,
2013-02-13 17:02:00,41.4,34.4,29.92,SSW,194,4.0,7.0,76,0.00,,,0.08,Wunderground v.1.15,2013-02-13 22:02:00,
2013-02-13 17:07:00,41.1,34.1,29.92,SW,219,3.0,7.0,76,0.00,,,0.08,Wunderground v.1.15,2013-02-13 22:07:00,
2013-02-13 17:13:00,40.9,33.9,29.93,SSW,207,3.0,5.0,76,0.00,,,0.08,Wunderground v.1.15,2013-02-13 22:13:00,
2013-02-13 17:14:00,41.0,34.3,29.93,SW,223,3.0,5.0,77,0.00,,,0.08,Wunderground v.1.15,2013-02-13 22:14:00,
2013-02-13 17:20:00,41.1,33.4,29.93,SW,230,4.0,5.0,74,0.00,,,0.08,Wunderground v.1.15,2013-02-13 22:20:00,
2013-02-13 17:21:00,40.9,33.2,29.93,WSW,242,4.0,5.0,74,0.00,,,0.08,Wunderground v.1.15,2013-02-13 22:21:00,
2013-02-13 17:26:00,40.3,32.7,29.93,SW,234,4.0,5.0,74,0.00,,,0.08,Wunderground v.1.15,2013-02-13 22:26:00,
2013-02-13 17:28:00,40.2,32.6,29.93,West,274,4.0,4.0,74,0.00,,,0.08,Wunderground v.1.15,2013-02-13 22:28:00,
2013-02-13 17:31:00,39.8,32.5,29.93,West,265,3.0,4.0,75,0.00,,,0.08,Wunderground v.1.15,2013-02-13 22:31:00,
2013-02-13 17:33:00,39.8,32.5,29.93,WNW,295,3.0,4.0,75,0.00,,,0.08,Wunderground v.1.15,2013-02-13 22:33:00,
2013-02-13 17:35:00,39.8,32.8,29.93,WNW,289,3.0,4.0,76,0.00,,,0.08,Wunderground v.1.15,2013-02-13 22:35:00,
2013-02-13 17:39:00,39.7,32.4,29.93,WSW,258,3.0,3.0,75,0.00,,,0.08,Wunderground v.1.15,2013-02-13 22:39:00,
2013-02-13 17:40:00,39.7,32.4,29.93,West,273,3.0,4.0,75,0.00,,,0.08,Wunderground v.1.15,2013-02-13 22:40:00,
2013-02-13 17:43:00,39.5,32.6,29.94,WSW,244,3.0,4.0,76,0.00,,,0.08,Wunderground v.1.15,2013-02-13 22:43:00,
2013-02-13 17:45:00,39.4,32.8,29.94,West,267,3.0,4.0,77,0.00,,,0.08,Wunderground v.1.15,2013-02-13 22:45:00,
2013-02-13 17:46:00,39.3,32.7,29.94,WSW,241,3.0,4.0,77,0.00,,,0.08,Wunderground v.1.15,2013-02-13 22:46:00,
2013-02-13 17:50:00,39.1,32.5,29.94,SW,218,3.0,5.0,77,0.00,,,0.08,Wunderground v.1.15,2013-02-13 22:50:00,
2013-02-13 17:52:00,38.9,32.3,29.94,West,261,3.0,5.0,77,0.00,,,0.08,Wunderground v.1.15,2013-02-13 22:52:00,
2013-02-13 17:54:00,38.8,32.2,29.94,WSW,246,3.0,5.0,77,0.00,,,0.08,Wunderground v.1.15,2013-02-13 22:54:00,
2013-02-13 17:57:00,38.7,32.4,29.94,WSW,250,3.0,5.0,78,0.00,,,0.08,Wunderground v.1.15,2013-02-13 22:57:00,
2013-02-13 17:59:00,38.6,32.3,29.94,SW,225,3.0,3.0,78,0.00,,,0.08,Wunderground v.1.15,2013-02-13 22:59:00,
2013-02-13 18:01:00,38.6,32.3,29.94,SW,225,3.0,3.0,78,0.00,,,0.08,Wunderground v.1.15,2013-02-13 23:01:00,
2013-02-13 18:03:00,38.5,32.6,29.94,WSW,240,2.0,3.0,79,0.00,,,0.08,Wunderground v.1.15,2013-02-13 23:03:00,
2013-02-13 18:05:00,38.4,32.5,29.94,WSW,252,2.0,3.0,79,0.00,,,0.08,Wunderground v.1.15,2013-02-13 23:05:00,
2013-02-13 18:06:00,38.4,32.5,29.95,West,269,2.0,3.0,79,0.00,,,0.08,Wunderground v.1.15,2013-02-13 23:06:00,
2013-02-13 18:09:00,38.3,32.4,29.95,West,269,2.0,2.0,79,0.00,,,0.08,Wunderground v.1.15,2013-02-13 23:09:00,
2013-02-13 18:11:00,38.2,32.3,29.95,WSW,255,2.0,4.0,79,0.00,,,0.08,Wunderground v.1.15,2013-02-13 23:11:00,
2013-02-13 18:12:00,38.2,32.3,29.95,SW,232,2.0,4.0,79,0.00,,,0.08,Wunderground v.1.15,2013-02-13 23:12:00,
2013-02-13 18:16:00,38.1,32.2,29.95,WSW,246,2.0,4.0,79,0.00,,,0.08,Wunderground v.1.15,2013-02-13 23:16:00,
2013-02-13 18:18:00,38.0,32.1,29.95,SW,236,2.0,2.0,79,0.00,,,0.08,Wunderground v.1.15,2013-02-13 23:18:00,
2013-02-13 18:21:00,37.8,31.9,29.95,WSW,250,3.0,3.0,79,0.00,,,0.08,Wunderground v.1.15,2013-02-13 23:21:00,
2013-02-13 18:22:00,37.8,32.2,29.95,WSW,250,2.0,3.0,80,0.00,,,0.08,Wunderground v.1.15,2013-02-13 23:22:00,
2013-02-13 18:23:00,37.8,32.2,29.95,WSW,250,2.0,3.0,80,0.00,,,0.08,Wunderground v.1.15,2013-02-13 23:23:00,
2013-02-13 18:27:00,37.6,32.0,29.95,West,259,1.0,2.0,80,0.00,,,0.08,Wunderground v.1.15,2013-02-13 23:27:00,
2013-02-13 18:28:00,37.6,32.0,29.95,WSW,247,1.0,3.0,80,0.00,,,0.08,Wunderground v.1.15,2013-02-13 23:28:00,
2013-02-13 18:33:00,37.4,31.8,29.95,SW,218,2.0,3.0,80,0.00,,,0.08,Wunderground v.1.15,2013-02-13 23:33:00,
2013-02-13 18:34:00,37.3,31.7,29.95,SW,232,2.0,3.0,80,0.00,,,0.08,Wunderground v.1.15,2013-02-13 23:34:00,
2013-02-13 18:37:00,37.2,31.6,29.95,SW,227,2.0,3.0,80,0.00,,,0.08,Wunderground v.1.15,2013-02-13 23:37:00,
2013-02-13 18:38:00,37.2,31.6,29.95,SW,227,2.0,2.0,80,0.00,,,0.08,Wunderground v.1.15,2013-02-13 23:38:00,
2013-02-13 18:39:00,37.1,31.5,29.95,SW,227,2.0,2.0,80,0.00,,,0.08,Wunderground v.1.15,2013-02-13 23:39:00,
2013-02-13 18:44:00,36.9,31.6,29.95,SW,236,1.0,2.0,81,0.00,,,0.08,Wunderground v.1.15,2013-02-13 23:44:00,
2013-02-13 18:45:00,36.9,31.6,29.95,SW,236,1.0,2.0,81,0.00,,,0.08,Wunderground v.1.15,2013-02-13 23:45:00,
2013-02-13 18:48:00,36.9,31.6,29.96,WSW,240,1.0,1.0,81,0.00,,,0.08,Wunderground v.1.15,2013-02-13 23:48:00,
2013-02-13 18:50:00,36.9,31.6,29.96,WSW,240,1.0,1.0,81,0.00,,,0.08,Wunderground v.1.15,2013-02-13 23:50:00,
2013-02-13 18:52:00,36.9,31.6,29.96,WSW,240,1.0,1.0,81,0.00,,,0.08,Wunderground v.1.15,2013-02-13 23:52:00,
2013-02-13 18:54:00,36.6,31.3,29.96,WSW,240,0.0,1.0,81,0.00,,,0.08,Wunderground v.1.15,2013-02-13 23:54:00,
2013-02-13 18:57:00,36.5,31.2,29.96,SSW,213,1.0,1.0,81,0.00,,,0.08,Wunderground v.1.15,2013-02-13 23:57:00,
2013-02-13 19:00:00,36.4,31.1,29.96,SSW,213,1.0,2.0,81,0.00,,,0.08,Wunderground v.1.15,2013-02-14 00:00:00,
2013-02-13 19:02:00,36.2,30.9,29.96,SSW,213,1.0,2.0,81,0.00,,,0.08,Wunderground v.1.15,2013-02-14 00:02:00,
2013-02-13 19:06:00,36.2,31.2,29.96,SSW,213,1.0,2.0,82,0.00,,,0.08,Wunderground v.1.15,2013-02-14 00:06:00,
2013-02-13 19:08:00,36.1,31.1,29.96,SSW,213,1.0,1.0,82,0.00,,,0.08,Wunderground v.1.15,2013-02-14 00:08:00,
2013-02-13 19:12:00,36.0,31.0,29.97,SSW,209,1.0,2.0,82,0.00,,,0.08,Wunderground v.1.15,2013-02-14 00:12:00,
2013-02-13 19:13:00,36.0,31.0,29.97,SSW,209,1.0,2.0,82,0.00,,,0.08,Wunderground v.1.15,2013-02-14 00:13:00,
2013-02-13 19:14:00,35.9,30.9,29.97,SSW,209,1.0,2.0,82,0.00,,,0.08,Wunderground v.1.15,2013-02-14 00:14:00,
2013-02-13 19:19:00,35.9,30.9,29.97,SSW,213,1.0,1.0,82,0.00,,,0.08,Wunderground v.1.15,2013-02-14 00:19:00,
2013-02-13 19:21:00,35.8,30.8,29.97,SSW,213,1.0,1.0,82,0.00,,,0.08,Wunderground v.1.15,2013-02-14 00:21:00,
2013-02-13 19:24:00,35.9,30.9,29.97,SW,217,1.0,1.0,82,0.00,,,0.08,Wunderground v.1.15,2013-02-14 00:24:00,
2013-02-13 19:26:00,35.8,30.8,29.97,SW,217,1.0,1.0,82,0.00,,,0.08,Wunderground v.1.15,2013-02-14 00:26:00,
2013-02-13 19:27:00,35.8,30.8,29.97,SW,219,1.0,2.0,82,0.00,,,0.08,Wunderground v.1.15,2013-02-14 00:27:00,
2013-02-13 19:30:00,35.7,30.7,29.97,SSW,209,1.0,2.0,82,0.00,,,0.08,Wunderground v.1.15,2013-02-14 00:30:00,
2013-02-13 19:31:00,37.1,34.4,29.99,South,190,1.0,4.0,90,0.00,,,0.00,Wunderground v.1.15,2013-02-14 00:31:00,
2013-02-13 19:32:00,35.6,30.6,29.97,SSW,209,1.0,2.0,82,0.00,,,0.08,Wunderground v.1.15,2013-02-14 00:32:00,
2013-02-13 19:34:00,35.5,30.5,29.97,SW,215,1.0,3.0,82,0.00,,,0.08,Wunderground v.1.15,2013-02-14 00:34:00,
2013-02-13 19:37:00,37.1,34.4,29.99,SSW,197,3.0,5.0,90,0.00,,,0.00,Wunderground v.1.15,2013-02-14 00:37:00,
2013-02-13 19:39:00,35.3,30.7,29.97,SSW,205,1.0,4.0,83,0.00,,,0.08,Wunderground v.1.15,2013-02-14 00:39:00,
2013-02-13 19:40:00,35.3,30.7,29.97,SSW,206,1.0,4.0,83,0.00,,,0.08,Wunderground v.1.15,2013-02-14 00:40:00,
2013-02-13 19:41:00,37.1,34.4,29.99,SSW,197,3.0,4.0,90,0.00,,,0.00,Wunderground v.1.15,2013-02-14 00:41:00,
2013-02-13 19:44:00,35.2,30.6,29.98,SSW,206,1.0,4.0,83,0.00,,,0.08,Wunderground v.1.15,2013-02-14 00:44:00,
2013-02-13 19:45:00,37.1,34.4,29.99,SSW,201,3.0,4.0,90,0.00,,,0.00,Wunderground v.1.15,2013-02-14 00:45:00,
2013-02-13 19:46:00,35.2,30.6,29.98,SSW,205,1.0,4.0,83,0.00,,,0.08,Wunderground v.1.15,2013-02-14 00:46:00,
2013-02-13 19:50:00,35.0,30.4,29.98,SSW,206,1.0,1.0,83,0.00,,,0.08,Wunderground v.1.15,2013-02-14 00:50:00,
2013-02-13 19:51:00,37.1,34.4,29.99,SW,214,2.0,3.0,90,0.00,,,0.00,Wunderground v.1.15,2013-02-14 00:51:00,
2013-02-13 19:52:00,35.0,30.4,29.98,SSW,206,0.0,1.0,83,0.00,,,0.08,Wunderground v.1.15,2013-02-14 00:52:00,
2013-02-13 19:53:00,34.9,30.3,29.98,SSW,206,0.0,1.0,83,0.00,,,0.08,Wunderground v.1.15,2013-02-14 00:53:00,
2013-02-13 19:55:00,34.9,30.3,29.99,SSW,206,0.0,1.0,83,0.00,,,0.08,Wunderground v.1.15,2013-02-14 00:55:00,
2013-02-13 19:57:00,34.9,30.3,29.99,SSW,206,0.0,1.0,83,0.00,,,0.08,Wunderground v.1.15,2013-02-14 00:57:00,
2013-02-13 19:58:00,37.1,34.4,29.99,WSW,242,3.0,8.0,90,0.00,,,0.00,Wunderground v.1.15,2013-02-14 00:58:00,
2013-02-13 19:59:00,34.9,30.3,29.99,SSW,206,1.0,1.0,83,0.00,,,0.08,Wunderground v.1.15,2013-02-14 00:59:00,
2013-02-13 20:02:00,34.6,30.3,29.98,SSW,206,0.0,1.0,84,0.00,,,0.08,Wunderground v.1.15,2013-02-14 01:02:00,
2013-02-13 20:03:00,37.1,34.4,30.00,WSW,244,3.0,6.0,90,0.00,,,0.00,Wunderground v.1.15,2013-02-14 01:03:00,
2013-02-13 20:05:00,37.1,34.4,30.00,SSW,194,3.0,6.0,90,0.00,,,0.00,Wunderground v.1.15,2013-02-14 01:05:00,
2013-02-13 20:07:00,37.1,34.2,30.00,SSW,192,3.0,6.0,89,0.00,,,0.00,Wunderground v.1.15,2013-02-14 01:07:00,
2013-02-13 20:08:00,34.4,30.1,29.98,SSW,205,0.0,1.0,84,0.00,,,0.08,Wunderground v.1.15,2013-02-14 01:08:00,
2013-02-13 20:10:00,37.2,34.3,30.00,SW,223,3.0,5.0,89,0.00,,,0.00,Wunderground v.1.15,2013-02-14 01:10:00,
2013-02-13 20:11:00,34.3,30.0,29.99,SSW,205,0.0,1.0,84,0.00,,,0.08,Wunderground v.1.15,2013-02-14 01:11:00,
2013-02-13 20:12:00,34.2,30.2,29.99,SSW,205,0.0,1.0,85,0.00,,,0.08,Wunderground v.1.15,2013-02-14 01:12:00,
2013-02-13 20:13:00,34.2,30.2,29.99,SSW,205,0.0,1.0,85,0.00,,,0.08,Wunderground v.1.15,2013-02-14 01:13:00,
2013-02-13 20:15:00,37.2,34.3,30.00,South,188,3.0,7.0,89,0.00,,,0.00,Wunderground v.1.15,2013-02-14 01:15:00,
2013-02-13 20:16:00,37.2,34.3,30.00,SSW,211,3.0,7.0,89,0.00,,,0.00,Wunderground v.1.15,2013-02-14 01:16:00,
2013-02-13 20:17:00,34.1,30.1,29.98,SSW,205,1.0,1.0,85,0.00,,,0.08,Wunderground v.1.15,2013-02-14 01:17:00,
2013-02-13 20:19:00,37.2,34.3,30.00,SSW,200,3.0,7.0,89,0.00,,,0.00,Wunderground v.1.15,2013-02-14 01:19:00,
2013-02-13 20:20:00,34.1,30.1,29.98,SSW,205,1.0,1.0,85,0.00,,,0.08,Wunderground v.1.15,2013-02-14 01:20:00,
2013-02-13 20:22:00,34.1,30.1,29.98,SSW,206,1.0,1.0,85,0.00,,,0.08,Wunderground v.1.15,2013-02-14 01:22:00,
2013-02-13 20:23:00,37.3,34.4,29.99,SSW,202,3.0,5.0,89,0.00,,,0.00,Wunderground v.1.15,2013-02-14 01:23:00,
2013-02-13 20:26:00,34.0,30.0,29.98,SSW,205,1.0,1.0,85,0.00,,,0.08,Wunderground v.1.15,2013-02-14 01:26:00,
2013-02-13 20:27:00,34.0,30.0,29.99,SSW,205,1.0,1.0,85,0.00,,,0.08,Wunderground v.1.15,2013-02-14 01:27:00,
2013-02-13 20:28:00,37.3,34.4,30.00,SSW,201,3.0,6.0,89,0.00,,,0.00,Wunderground v.1.15,2013-02-14 01:28:00,
2013-02-13 20:29:00,34.0,30.0,29.99,SSW,206,1.0,1.0,85,0.00,,,0.08,Wunderground v.1.15,2013-02-14 01:29:00,
2013-02-13 20:33:00,33.9,29.9,29.99,SSW,205,1.0,2.0,85,0.00,,,0.08,Wunderground v.1.15,2013-02-14 01:33:00,
2013-02-13 20:34:00,37.4,34.5,30.00,WSW,243,3.0,4.0,89,0.00,,,0.00,Wunderground v.1.15,2013-02-14 01:34:00,
2013-02-13 20:35:00,33.9,29.9,29.99,SSW,205,1.0,2.0,85,0.00,,,0.08,Wunderground v.1.15,2013-02-14 01:35:00,
2013-02-13 20:37:00,33.8,29.8,29.98,SSW,205,1.0,2.0,85,0.00,,,0.08,Wunderground v.1.15,2013-02-14 01:37:00,
2013-02-13 20:38:00,33.8,29.8,29.98,SSW,206,1.0,2.0,85,0.00,,,0.08,Wunderground v.1.15,2013-02-14 01:38:00,
2013-02-13 20:39:00,33.8,29.8,29.99,SSE,155,1.0,2.0,85,0.00,,,0.08,Wunderground v.1.15,2013-02-14 01:39:00,
2013-02-13 20:41:00,37.5,34.6,30.00,SSW,202,2.0,2.0,89,0.00,,,0.00,Wunderground v.1.15,2013-02-14 01:41:00,
2013-02-13 20:42:00,33.7,29.7,29.99,SSE,155,1.0,2.0,85,0.00,,,0.08,Wunderground v.1.15,2013-02-14 01:42:00,
2013-02-13 20:44:00,33.7,30.0,29.98,SSE,155,1.0,2.0,86,0.00,,,0.08,Wunderground v.1.15,2013-02-14 01:44:00,
2013-02-13 20:45:00,37.7,34.8,30.00,South,183,2.0,7.0,89,0.00,,,0.00,Wunderground v.1.15,2013-02-14 01:45:00,
2013-02-13 20:48:00,37.7,34.8,30.00,WSW,241,4.0,7.0,89,0.00,,,0.00,Wunderground v.1.15,2013-02-14 01:48:00,
2013-02-13 20:49:00,33.6,29.9,29.99,SSW,201,1.0,2.0,86,0.00,,,0.08,Wunderground v.1.15,2013-02-14 01:49:00,
2013-02-13 20:50:00,37.7,34.8,30.00,WSW,240,3.0,4.0,89,0.00,,,0.00,Wunderground v.1.15,2013-02-14 01:50:00,
2013-02-13 20:51:00,33.6,29.9,29.98,SSW,201,1.0,2.0,86,0.00,,,0.08,Wunderground v.1.15,2013-02-14 01:51:00,
2013-02-13 20:52:00,33.6,29.9,29.99,SSW,200,1.0,2.0,86,0.00,,,0.08,Wunderground v.1.15,2013-02-14 01:52:00,
2013-02-13 20:55:00,37.8,34.8,30.00,SW,219,4.0,4.0,89,0.00,,,0.00,Wunderground v.1.15,2013-02-14 01:55:00,
2013-02-13 20:57:00,33.5,29.8,29.99,SSW,198,1.0,2.0,86,0.00,,,0.08,Wunderground v.1.15,2013-02-14 01:57:00,
2013-02-13 20:59:00,33.5,29.8,29.99,South,188,1.0,1.0,86,0.00,,,0.08,Wunderground v.1.15,2013-02-14 01:59:00,
2013-02-13 21:00:00,33.5,29.8,29.99,South,188,1.0,2.0,86,0.00,,,0.08,Wunderground v.1.15,2013-02-14 02:00:00,
2013-02-13 21:02:00,33.5,29.8,29.99,SSW,209,1.0,2.0,86,0.00,,,0.08,Wunderground v.1.15,2013-02-14 02:02:00,
2013-02-13 21:06:00,33.4,29.7,29.99,SSW,211,1.0,2.0,86,0.00,,,0.08,Wunderground v.1.15,2013-02-14 02:06:00,
2013-02-13 21:07:00,38.2,35.0,30.00,South,184,3.0,4.0,88,0.00,,,0.00,Wunderground v.1.15,2013-02-14 02:07:00,
2013-02-13 21:08:00,33.3,29.6,29.99,South,186,1.0,2.0,86,0.00,,,0.08,Wunderground v.1.15,2013-02-14 02:08:00,
2013-02-13 21:12:00,33.3,29.6,29.99,South,186,1.0,2.0,86,0.00,,,0.08,Wunderground v.1.15,2013-02-14 02:12:00,
2013-02-13 21:14:00,33.2,29.5,29.99,SSE,161,1.0,2.0,86,0.00,,,0.08,Wunderground v.1.15,2013-02-14 02:14:00,
2013-02-13 21:15:00,33.2,29.5,29.99,SSE,161,1.0,2.0,86,0.00,,,0.08,Wunderground v.1.15,2013-02-14 02:15:00,
2013-02-13 21:16:00,38.5,35.3,30.00,South,186,3.0,7.0,88,0.00,,,0.00,Wunderground v.1.15,2013-02-14 02:16:00,
2013-02-13 21:17:00,38.5,35.3,30.00,SW,219,2.0,7.0,88,0.00,,,0.00,Wunderground v.1.15,2013-02-14 02:17:00,
2013-02-13 21:18:00,33.2,29.5,29.99,South,175,1.0,3.0,86,0.00,,,0.08,Wunderground v.1.15,2013-02-14 02:18:00,
2013-02-13 21:19:00,33.2,29.5,29.99,South,175,1.0,3.0,86,0.00,,,0.08,Wunderground v.1.15,2013-02-14 02:19:00,
2013-02-13 21:20:00,33.2,29.5,29.99,South,175,1.0,3.0,86,0.00,,,0.08,Wunderground v.1.15,2013-02-14 02:20:00,
2013-02-13 21:21:00,38.8,35.6,30.00,SW,219,3.0,3.0,88,0.00,,,0.00,Wunderground v.1.15,2013-02-14 02:21:00,
2013-02-13 21:25:00,33.1,29.7,29.99,South,175,1.0,3.0,87,0.00,,,0.08,Wunderground v.1.15,2013-02-14 02:25:00,
2013-02-13 21:26:00,33.0,29.6,29.99,South,175,1.0,3.0,87,0.00,,,0.08,Wunderground v.1.15,2013-02-14 02:26:00,
2013-02-13 21:28:00,33.0,29.6,29.99,SSW,211,1.0,5.0,87,0.00,,,0.08,Wunderground v.1.15,2013-02-14 02:28:00,
2013-02-13 21:30:00,38.9,35.4,30.00,SSW,213,2.0,2.0,87,0.00,,,0.00,Wunderground v.1.15,2013-02-14 02:30:00,
2013-02-13 21:31:00,33.2,29.8,30.00,South,189,1.0,5.0,87,0.00,,,0.08,Wunderground v.1.15,2013-02-14 02:31:00,
2013-02-13 21:33:00,33.2,29.8,29.99,South,189,1.0,5.0,87,0.00,,,0.08,Wunderground v.1.15,2013-02-14 02:33:00,
2013-02-13 21:36:00,33.2,29.8,29.99,South,188,1.0,5.0,87,0.00,,,0.08,Wunderground v.1.15,2013-02-14 02:36:00,
2013-02-13 21:38:00,33.3,29.8,29.99,South,188,1.0,2.0,87,0.00,,,0.08,Wunderground v.1.15,2013-02-14 02:38:00,
2013-02-13 21:41:00,33.2,29.8,29.99,South,188,1.0,2.0,87,0.00,,,0.08,Wunderground v.1.15,2013-02-14 02:41:00,
2013-02-13 21:43:00,33.2,29.8,29.99,South,188,1.0,2.0,87,0.00,,,0.08,Wunderground v.1.15,2013-02-14 02:43:00,
2013-02-13 21:45:00,33.2,29.8,29.99,South,190,1.0,3.0,87,0.00,,,0.08,Wunderground v.1.15,2013-02-14 02:45:00,
2013-02-13 21:48:00,33.3,30.1,29.99,SSW,193,1.0,2.0,88,0.00,,,0.08,Wunderground v.1.15,2013-02-14 02:48:00,
2013-02-13 21:49:00,33.3,30.1,29.99,SSW,193,1.0,2.0,88,0.00,,,0.08,Wunderground v.1.15,2013-02-14 02:49:00,
2013-02-13 21:50:00,33.3,29.8,29.99,SSW,193,1.0,2.0,87,0.00,,,0.08,Wunderground v.1.15,2013-02-14 02:50:00,
2013-02-13 21:54:00,33.4,29.9,29.99,SSW,193,1.0,2.0,87,0.00,,,0.08,Wunderground v.1.15,2013-02-14 02:54:00,
2013-02-13 21:55:00,33.4,29.9,29.99,South,173,1.0,2.0,87,0.00,,,0.08,Wunderground v.1.15,2013-02-14 02:55:00,
2013-02-13 21:56:00,33.4,30.2,29.99,South,173,1.0,2.0,88,0.00,,,0.08,Wunderground v.1.15,2013-02-14 02:56:00,
2013-02-13 21:57:00,33.4,30.2,29.99,South,173,1.0,2.0,88,0.00,,,0.08,Wunderground v.1.15,2013-02-14 02:57:00,
2013-02-13 22:01:00,33.4,29.9,29.99,South,173,1.0,2.0,87,0.00,,,0.08,Wunderground v.1.15,2013-02-14 03:01:00,
2013-02-13 22:02:00,33.4,29.9,29.99,South,173,1.0,2.0,87,0.00,,,0.08,Wunderground v.1.15,2013-02-14 03:02:00,
2013-02-13 22:04:00,33.4,29.9,29.99,South,173,1.0,2.0,87,0.00,,,0.08,Wunderground v.1.15,2013-02-14 03:04:00,
2013-02-13 22:05:00,33.4,30.2,29.99,South,173,1.0,2.0,88,0.00,,,0.08,Wunderground v.1.15,2013-02-14 03:05:00,
2013-02-13 22:10:00,33.3,30.1,29.99,South,173,0.0,0.0,88,0.00,,,0.08,Wunderground v.1.15,2013-02-14 03:10:00,
2013-02-13 22:12:00,33.3,30.1,29.99,South,174,0.0,1.0,88,0.00,,,0.08,Wunderground v.1.15,2013-02-14 03:12:00,
2013-02-13 22:16:00,33.2,30.0,29.99,South,174,0.0,1.0,88,0.00,,,0.08,Wunderground v.1.15,2013-02-14 03:16:00,
2013-02-13 22:17:00,33.2,30.0,29.99,South,174,0.0,2.0,88,0.00,,,0.08,Wunderground v.1.15,2013-02-14 03:17:00,
2013-02-13 22:19:00,33.1,29.9,29.99,South,174,0.0,1.0,88,0.00,,,0.08,Wunderground v.1.15,2013-02-14 03:19:00,
2013-02-13 22:20:00,33.1,29.9,29.99,South,174,0.0,1.0,88,0.00,,,0.08,Wunderground v.1.15,2013-02-14 03:20:00,
2013-02-13 22:24:00,33.0,29.8,29.99,South,174,0.0,2.0,88,0.00,,,0.08,Wunderground v.1.15,2013-02-14 03:24:00,
2013-02-13 22:25:00,32.9,29.7,29.99,South,174,0.0,2.0,88,0.00,,,0.08,Wunderground v.1.15,2013-02-14 03:25:00,
2013-02-13 22:28:00,32.8,29.6,29.99,South,174,0.0,0.0,88,0.00,,,0.08,Wunderground v.1.15,2013-02-14 03:28:00,
2013-02-13 22:30:00,32.8,29.6,29.99,South,174,0.0,0.0,88,0.00,,,0.08,Wunderground v.1.15,2013-02-14 03:30:00,
2013-02-13 22:32:00,32.8,29.9,29.99,South,174,0.0,0.0,89,0.00,,,0.08,Wunderground v.1.15,2013-02-14 03:32:00,
2013-02-13 22:35:00,32.8,29.9,29.99,South,174,0.0,0.0,89,0.00,,,0.08,Wunderground v.1.15,2013-02-14 03:35:00,
2013-02-13 22:38:00,32.8,29.9,29.99,South,174,0.0,0.0,89,0.00,,,0.08,Wunderground v.1.15,2013-02-14 03:38:00,
2013-02-13 22:40:00,32.8,29.9,29.99,South,174,0.0,1.0,89,0.00,,,0.08,Wunderground v.1.15,2013-02-14 03:40:00,
2013-02-13 22:44:00,32.7,29.8,30.00,South,174,0.0,1.0,89,0.00,,,0.08,Wunderground v.1.15,2013-02-14 03:44:00,
2013-02-13 22:46:00,32.7,29.8,30.00,South,174,0.0,1.0,89,0.00,,,0.08,Wunderground v.1.15,2013-02-14 03:46:00,
2013-02-13 22:49:00,32.7,29.8,30.00,South,174,0.0,1.0,89,0.00,,,0.08,Wunderground v.1.15,2013-02-14 03:49:00,
2013-02-13 22:50:00,32.7,29.8,30.00,South,174,0.0,1.0,89,0.00,,,0.08,Wunderground v.1.15,2013-02-14 03:50:00,
2013-02-13 22:51:00,32.7,29.8,30.00,South,174,0.0,1.0,89,0.00,,,0.08,Wunderground v.1.15,2013-02-14 03:51:00,
2013-02-13 22:53:00,32.6,29.7,30.00,South,174,1.0,2.0,89,0.00,,,0.08,Wunderground v.1.15,2013-02-14 03:53:00,
2013-02-13 22:55:00,32.6,29.7,30.00,South,175,1.0,2.0,89,0.00,,,0.08,Wunderground v.1.15,2013-02-14 03:55:00,
2013-02-13 22:56:00,32.6,29.7,30.00,SSW,207,1.0,3.0,89,0.00,,,0.08,Wunderground v.1.15,2013-02-14 03:56:00,
2013-02-13 23:02:00,32.8,30.2,30.00,SSW,213,1.0,2.0,90,0.00,,,0.08,Wunderground v.1.15,2013-02-14 04:02:00,
2013-02-13 23:03:00,32.8,30.2,30.00,South,182,2.0,3.0,90,0.00,,,0.08,Wunderground v.1.15,2013-02-14 04:03:00,
2013-02-13 23:06:00,33.0,30.4,30.00,SSW,205,2.0,3.0,90,0.00,,,0.08,Wunderground v.1.15,2013-02-14 04:06:00,
2013-02-13 23:08:00,33.0,30.1,30.00,SSW,213,2.0,2.0,89,0.00,,,0.08,Wunderground v.1.15,2013-02-14 04:08:00,
2013-02-13 23:10:00,33.1,30.2,30.00,South,186,2.0,2.0,89,0.00,,,0.08,Wunderground v.1.15,2013-02-14 04:10:00,
2013-02-13 23:13:00,33.2,30.3,30.00,SSW,194,3.0,4.0,89,0.00,,,0.08,Wunderground v.1.15,2013-02-14 04:13:00,
2013-02-13 23:15:00,33.2,30.3,30.00,South,186,3.0,4.0,89,0.00,,,0.08,Wunderground v.1.15,2013-02-14 04:15:00,
2013-02-13 23:16:00,33.3,30.4,30.00,SSW,196,3.0,4.0,89,0.00,,,0.08,Wunderground v.1.15,2013-02-14 04:16:00,
2013-02-13 23:19:00,33.3,30.4,30.00,SW,233,3.0,5.0,89,0.00,,,0.08,Wunderground v.1.15,2013-02-14 04:19:00,
2013-02-13 23:22:00,33.4,30.5,30.00,SW,217,3.0,5.0,89,0.00,,,0.08,Wunderground v.1.15,2013-02-14 04:22:00,
2013-02-13 23:24:00,33.5,30.6,30.00,SSW,201,3.0,5.0,89,0.00,,,0.08,Wunderground v.1.15,2013-02-14 04:24:00,
2013-02-13 23:25:00,33.6,30.7,30.00,SSW,211,3.0,5.0,89,0.00,,,0.08,Wunderground v.1.15,2013-02-14 04:25:00,
2013-02-13 23:26:00,33.6,30.7,30.00,South,188,3.0,5.0,89,0.00,,,0.08,Wunderground v.1.15,2013-02-14 04:26:00,
2013-02-13 23:29:00,33.6,30.7,30.00,SSW,201,2.0,4.0,89,0.00,,,0.08,Wunderground v.1.15,2013-02-14 04:29:00,
2013-02-13 23:31:00,33.7,30.8,30.00,SSW,195,3.0,4.0,89,0.00,,,0.08,Wunderground v.1.15,2013-02-14 04:31:00,
2013-02-13 23:33:00,33.8,30.9,30.00,SSW,204,3.0,4.0,89,0.00,,,0.08,Wunderground v.1.15,2013-02-14 04:33:00,
2013-02-13 23:37:00,34.1,31.2,30.00,SSW,200,3.0,5.0,89,0.00,,,0.08,Wunderground v.1.15,2013-02-14 04:37:00,
2013-02-13 23:39:00,34.2,31.3,30.00,SSW,213,3.0,5.0,89,0.00,,,0.08,Wunderground v.1.15,2013-02-14 04:39:00,
2013-02-13 23:42:00,34.3,31.4,30.00,SSW,200,3.0,5.0,89,0.00,,,0.08,Wunderground v.1.15,2013-02-14 04:42:00,
2013-02-13 23:43:00,34.3,31.4,30.01,SSW,200,3.0,5.0,89,0.00,,,0.08,Wunderground v.1.15,2013-02-14 04:43:00,
2013-02-13 23:47:00,34.4,31.5,30.01,SSW,194,4.0,5.0,89,0.00,,,0.08,Wunderground v.1.15,2013-02-14 04:47:00,
2013-02-13 23:48:00,34.5,31.6,30.00,SSW,195,3.0,5.0,89,0.00,,,0.08,Wunderground v.1.15,2013-02-14 04:48:00,
2013-02-13 23:49:00,34.5,31.3,30.00,South,178,3.0,6.0,88,0.00,,,0.08,Wunderground v.1.15,2013-02-14 04:49:00,
2013-02-13 23:52:00,34.7,31.8,30.00,SSW,213,4.0,8.0,89,0.00,,,0.08,Wunderground v.1.15,2013-02-14 04:52:00,
2013-02-13 23:53:00,34.7,31.5,30.00,SSW,213,4.0,8.0,88,0.00,,,0.08,Wunderground v.1.15,2013-02-14 04:53:00,
2013-02-13 23:55:00,34.8,31.6,30.00,SSW,205,4.0,8.0,88,0.00,,,0.08,Wunderground v.1.15,2013-02-14 04:55:00,
2013-02-13 23:56:00,34.9,31.7,30.00,SW,225,5.0,8.0,88,0.00,,,0.08,Wunderground v.1.15,2013-02-14 04:56:00,
2013-02-13 23:59:00,34.8,31.6,30.01,South,176,5.0,5.0,88,0.00,,,0.08,Wunderground v.1.15,2013-02-14 04:59:00,